Observation data for Stinnett on 01/20/2019      Previous  Date  Next       Current Mesonet Observations  Soil Data  Daily Summary Page  Observations in Plain Language
KST3 200600Z 14004KT M01/M03 A3025 RMK A01 T10071030  RH  085%=      5-min Rain = 0
KST3 200601Z 14004KT M01/M03 A3025 RMK A01 T10071030  RH  084%=      5-min Rain = 0
KST3 200602Z 14004KT M01/M03 A3025 RMK A01 T10071031  RH  084%=      5-min Rain = 0
KST3 200603Z 14004KT M01/M03 A3025 RMK A01 T10081031  RH  084%=      5-min Rain = 0
KST3 200604Z 14004KT M01/M03 A3025 RMK A01 T10081031  RH  084%=      5-min Rain = 0
KST3 200605Z 14004KT M01/M03 A3025 RMK A01 T10071031  RH  084%=      5-min Rain = 0
KST3 200606Z 13004KT M01/M03 A3025 RMK A01 T10081031  RH  084%=      5-min Rain = 0
KST3 200607Z 13004KT M01/M03 A3025 RMK A01 T10081031  RH  084%=      5-min Rain = 0
KST3 200608Z 13004KT M01/M03 A3025 RMK A01 T10081032  RH  084%=      5-min Rain = 0
KST3 200609Z 13005KT M01/M03 A3025 RMK A01 T10091032  RH  084%=      5-min Rain = 0
KST3 200610Z 13005KT M01/M03 A3025 RMK A01 T10091032  RH  084%=      5-min Rain = 0
KST3 200611Z 13004KT M01/M03 A3025 RMK A01 T10091032  RH  084%=      5-min Rain = 0
KST3 200612Z 13004KT M01/M03 A3025 RMK A01 T10091032  RH  084%=      5-min Rain = 0
KST3 200613Z 13004KT M01/M03 A3025 RMK A01 T10091032  RH  084%=      5-min Rain = 0
KST3 200614Z 13004KT M01/M03 A3025 RMK A01 T10091032  RH  084%=      5-min Rain = 0
KST3 200615Z 13004KT M01/M03 A3025 RMK A01 T10091032  RH  084%=      5-min Rain = 0
KST3 200616Z 13004KT M01/M03 A3025 RMK A01 T10101033  RH  084%=      5-min Rain = 0
KST3 200617Z 13004KT M01/M03 A3025 RMK A01 T10101032  RH  085%=      5-min Rain = 0
KST3 200618Z 14004KT M01/M03 A3025 RMK A01 T10111033  RH  084%=      5-min Rain = 0
KST3 200619Z 14004KT M01/M03 A3025 RMK A01 T10121034  RH  085%=      5-min Rain = 0
KST3 200620Z 14004KT M01/M03 A3025 RMK A01 T10121034  RH  085%=      5-min Rain = 0
KST3 200621Z 15004KT M01/M03 A3025 RMK A01 T10131034  RH  085%=      5-min Rain = 0
KST3 200622Z 15003KT M01/M03 A3025 RMK A01 T10131034  RH  086%=      5-min Rain = 0
KST3 200623Z 15004KT M01/M03 A3026 RMK A01 T10141034  RH  086%=      5-min Rain = 0
KST3 200624Z 15004KT M01/M03 A3026 RMK A01 T10131032  RH  087%=      5-min Rain = 0
KST3 200625Z 14004KT M01/M03 A3026 RMK A01 T10121032  RH  087%=      5-min Rain = 0
KST3 200626Z 14004KT M01/M03 A3026 RMK A01 T10121032  RH  087%=      5-min Rain = 0
KST3 200627Z 14004KT M01/M03 A3026 RMK A01 T10121032  RH  086%=      5-min Rain = 0
KST3 200628Z 14004KT M01/M03 A3026 RMK A01 T10121033  RH  086%=      5-min Rain = 0
KST3 200629Z 14004KT M01/M03 A3025 RMK A01 T10121033  RH  086%=      5-min Rain = 0
KST3 200630Z 14004KT M01/M03 A3025 RMK A01 T10121032  RH  086%=      5-min Rain = 0
KST3 200631Z 14005KT M01/M03 A3025 RMK A01 T10111032  RH  086%=      5-min Rain = 0
KST3 200632Z 14005KT M01/M03 A3025 RMK A01 T10111032  RH  085%=      5-min Rain = 0
KST3 200633Z 14005KT M01/M03 A3025 RMK A01 T10111033  RH  085%=      5-min Rain = 0
KST3 200634Z 14005KT M01/M03 A3025 RMK A01 T10121034  RH  085%=      5-min Rain = 0
KST3 200635Z 14005KT M01/M03 A3025 RMK A01 T10131034  RH  086%=      5-min Rain = 0
KST3 200636Z 14004KT M01/M03 A3025 RMK A01 T10131033  RH  086%=      5-min Rain = 0
KST3 200637Z 14004KT M01/M03 A3025 RMK A01 T10131033  RH  086%=      5-min Rain = 0
KST3 200638Z 15004KT M01/M03 A3025 RMK A01 T10131033  RH  086%=      5-min Rain = 0
KST3 200639Z 15004KT M01/M03 A3025 RMK A01 T10141034  RH  086%=      5-min Rain = 0
KST3 200640Z 15004KT M01/M03 A3025 RMK A01 T10141033  RH  086%=      5-min Rain = 0
KST3 200641Z 15004KT M01/M03 A3025 RMK A01 T10141033  RH  087%=      5-min Rain = 0
KST3 200642Z 15004KT M01/M03 A3025 RMK A01 T10141033  RH  087%=      5-min Rain = 0
KST3 200643Z 15005KT M01/M03 A3025 RMK A01 T10141033  RH  087%=      5-min Rain = 0
KST3 200644Z 15005KT M01/M03 A3025 RMK A01 T10141033  RH  087%=      5-min Rain = 0
KST3 200645Z 15005KT M01/M03 A3025 RMK A01 T10131033  RH  087%=      5-min Rain = 0
KST3 200646Z 15005KT M01/M03 A3025 RMK A01 T10131033  RH  087%=      5-min Rain = 0
KST3 200647Z 15005KT M01/M03 A3025 RMK A01 T10131033  RH  087%=      5-min Rain = 0
KST3 200648Z 15005KT M01/M03 A3025 RMK A01 T10131032  RH  087%=      5-min Rain = 0
KST3 200649Z 15005KT M01/M03 A3025 RMK A01 T10131032  RH  087%=      5-min Rain = 0
KST3 200650Z 15005KT M01/M03 A3025 RMK A01 T10131032  RH  087%=      5-min Rain = 0
KST3 200651Z 16005KT M01/M03 A3025 RMK A01 T10131033  RH  087%=      5-min Rain = 0
KST3 200652Z 16005KT M01/M03 A3025 RMK A01 T10131033  RH  086%=      5-min Rain = 0
KST3 200653Z 16005KT M01/M03 A3025 RMK A01 T10131033  RH  086%=      5-min Rain = 0
KST3 200654Z 16005KT M01/M03 A3025 RMK A01 T10141034  RH  086%=      5-min Rain = 0
KST3 200655Z 16005KT M02/M04 A3025 RMK A01 T10151035  RH  086%=      5-min Rain = 0
KST3 200656Z 17005KT M02/M04 A3025 RMK A01 T10151035  RH  086%=      5-min Rain = 0
KST3 200657Z 17005KT M02/M04 A3025 RMK A01 T10161036  RH  086%=      5-min Rain = 0
KST3 200658Z 17005KT M02/M04 A3025 RMK A01 T10161036  RH  087%=      5-min Rain = 0
KST3 200659Z 18005KT M02/M04 A3025 RMK A01 T10171036  RH  087%=      5-min Rain = 0
KST3 200700Z 18004KT M02/M04 A3025 RMK A01 T10191038  RH  087%=      5-min Rain = 0
KST3 200701Z 18004KT M02/M04 A3025 RMK A01 T10211040  RH  087%=      5-min Rain = 0
KST3 200702Z 18004KT M02/M04 A3025 RMK A01 T10221040  RH  088%=      5-min Rain = 0
KST3 200703Z 18005KT M02/M04 A3025 RMK A01 T10241039  RH  089%=      5-min Rain = 0
KST3 200704Z 18005KT M02/M04 A3025 RMK A01 T10241038  RH  090%=      5-min Rain = 0
KST3 200705Z 18005KT M02/M04 A3025 RMK A01 T10241037  RH  091%=      5-min Rain = 0
KST3 200706Z 18005KT M02/M04 A3025 RMK A01 T10241037  RH  091%=      5-min Rain = 0
KST3 200707Z 18005KT M02/M04 A3025 RMK A01 T10241037  RH  091%=      5-min Rain = 0
KST3 200708Z 19005KT M02/M04 A3025 RMK A01 T10241037  RH  091%=      5-min Rain = 0
KST3 200709Z 19005KT M02/M04 A3025 RMK A01 T10241037  RH  091%=      5-min Rain = 0
KST3 200710Z 19005KT M02/M04 A3025 RMK A01 T10241037  RH  091%=      5-min Rain = 0
KST3 200711Z 19005KT M02/M04 A3025 RMK A01 T10241037  RH  091%=      5-min Rain = 0
KST3 200712Z 19004KT M02/M04 A3025 RMK A01 T10241036  RH  091%=      5-min Rain = 0
KST3 200713Z 19004KT M02/M04 A3025 RMK A01 T10241036  RH  092%=      5-min Rain = 0
KST3 200714Z 19004KT M02/M04 A3025 RMK A01 T10241036  RH  092%=      5-min Rain = 0
KST3 200715Z 19004KT M02/M04 A3026 RMK A01 T10241035  RH  092%=      5-min Rain = 0
KST3 200716Z 19004KT M02/M04 A3026 RMK A01 T10231035  RH  092%=      5-min Rain = 0
KST3 200717Z 20004KT M02/M04 A3026 RMK A01 T10231035  RH  091%=      5-min Rain = 0
KST3 200718Z 20004KT M02/M04 A3026 RMK A01 T10231035  RH  091%=      5-min Rain = 0
KST3 200719Z 20004KT M02/M04 A3026 RMK A01 T10231036  RH  091%=      5-min Rain = 0
KST3 200720Z 20004KT M02/M04 A3026 RMK A01 T10231036  RH  091%=      5-min Rain = 0
KST3 200721Z 20004KT M02/M04 A3026 RMK A01 T10231037  RH  091%=      5-min Rain = 0
KST3 200722Z 20004KT M02/M04 A3026 RMK A01 T10241037  RH  091%=      5-min Rain = 0
KST3 200723Z 20004KT M02/M04 A3026 RMK A01 T10241037  RH  091%=      5-min Rain = 0
KST3 200724Z 19004KT M02/M04 A3026 RMK A01 T10241037  RH  091%=      5-min Rain = 0
KST3 200725Z 20004KT M02/M04 A3026 RMK A01 T10241037  RH  091%=      5-min Rain = 0
KST3 200726Z 20004KT M02/M04 A3026 RMK A01 T10241036  RH  091%=      5-min Rain = 0
KST3 200727Z 20004KT M02/M04 A3026 RMK A01 T10241037  RH  091%=      5-min Rain = 0
KST3 200728Z 20003KT M02/M04 A3026 RMK A01 T10241036  RH  091%=      5-min Rain = 0
KST3 200729Z 20003KT M02/M04 A3026 RMK A01 T10241036  RH  091%=      5-min Rain = 0
KST3 200730Z 19003KT M02/M04 A3026 RMK A01 T10231036  RH  091%=      5-min Rain = 0
KST3 200731Z 19003KT M02/M04 A3025 RMK A01 T10231036  RH  091%=      5-min Rain = 0
KST3 200732Z 19003KT M02/M04 A3025 RMK A01 T10231037  RH  090%=      5-min Rain = 0
KST3 200733Z 19003KT M02/M04 A3025 RMK A01 T10231037  RH  090%=      5-min Rain = 0
KST3 200734Z 19003KT M02/M04 A3025 RMK A01 T10231037  RH  090%=      5-min Rain = 0
KST3 200735Z 20004KT M02/M04 A3025 RMK A01 T10221036  RH  090%=      5-min Rain = 0
KST3 200736Z 20004KT M02/M04 A3025 RMK A01 T10221036  RH  090%=      5-min Rain = 0
KST3 200737Z 20004KT M02/M04 A3025 RMK A01 T10211035  RH  090%=      5-min Rain = 0
KST3 200738Z 19004KT M02/M04 A3025 RMK A01 T10211035  RH  090%=      5-min Rain = 0
KST3 200739Z 20004KT M02/M04 A3025 RMK A01 T10211036  RH  089%=      5-min Rain = 0
KST3 200740Z 20004KT M02/M04 A3025 RMK A01 T10201036  RH  089%=      5-min Rain = 0
KST3 200741Z 20004KT M02/M04 A3025 RMK A01 T10201037  RH  088%=      5-min Rain = 0
KST3 200742Z 20005KT M02/M04 A3025 RMK A01 T10221039  RH  088%=      5-min Rain = 0
KST3 200743Z 20005KT M02/M04 A3025 RMK A01 T10231040  RH  088%=      5-min Rain = 0
KST3 200744Z 20005KT M02/M04 A3025 RMK A01 T10241040  RH  089%=      5-min Rain = 0
KST3 200745Z 20005KT M02/M04 A3025 RMK A01 T10241040  RH  089%=      5-min Rain = 0
KST3 200746Z 21005KT M03/M04 A3025 RMK A01 T10261040  RH  089%=      5-min Rain = 0
KST3 200747Z 21005KT M03/M04 A3025 RMK A01 T10271041  RH  090%=      5-min Rain = 0
KST3 200748Z 21005KT M03/M04 A3025 RMK A01 T10271041  RH  090%=      5-min Rain = 0
KST3 200749Z 21005KT M03/M04 A3025 RMK A01 T10281040  RH  091%=      5-min Rain = 0
KST3 200750Z 21005KT M03/M04 A3025 RMK A01 T10281040  RH  091%=      5-min Rain = 0
KST3 200751Z 21005KT M03/M04 A3025 RMK A01 T10281039  RH  092%=      5-min Rain = 0
KST3 200752Z 21005KT M03/M04 A3025 RMK A01 T10281039  RH  092%=      5-min Rain = 0
KST3 200753Z 21006KT M03/M04 A3025 RMK A01 T10271039  RH  092%=      5-min Rain = 0
KST3 200754Z 21006KT M03/M04 A3025 RMK A01 T10271037  RH  092%=      5-min Rain = 0
KST3 200755Z 21006KT M03/M04 A3025 RMK A01 T10251036  RH  092%=      5-min Rain = 0
KST3 200756Z 21006KT M03/M04 A3025 RMK A01 T10251036  RH  092%=      5-min Rain = 0
KST3 200757Z 21006KT M02/M04 A3025 RMK A01 T10241037  RH  091%=      5-min Rain = 0
KST3 200758Z 21006KT M02/M04 A3025 RMK A01 T10241037  RH  091%=      5-min Rain = 0
KST3 200759Z 20006KT M02/M04 A3024 RMK A01 T10241037  RH  090%=      5-min Rain = 0
KST3 200800Z 20006KT M02/M04 A3024 RMK A01 T10241038  RH  090%=      5-min Rain = 0
KST3 200801Z 20006KT M02/M04 A3024 RMK A01 T10231037  RH  090%=      5-min Rain = 0
KST3 200802Z 20005KT M02/M04 A3024 RMK A01 T10221036  RH  090%=      5-min Rain = 0
KST3 200803Z 21006KT M02/M04 A3024 RMK A01 T10221037  RH  089%=      5-min Rain = 0
KST3 200804Z 21006KT M02/M04 A3025 RMK A01 T10221038  RH  089%=      5-min Rain = 0
KST3 200805Z 21006KT M02/M04 A3025 RMK A01 T10221038  RH  089%=      5-min Rain = 0
KST3 200806Z 21006KT M02/M04 A3025 RMK A01 T10221038  RH  089%=      5-min Rain = 0
KST3 200807Z 21005KT M02/M04 A3025 RMK A01 T10221038  RH  089%=      5-min Rain = 0
KST3 200808Z 21005KT M02/M04 A3025 RMK A01 T10231039  RH  089%=      5-min Rain = 0
KST3 200809Z 22005KT M02/M04 A3024 RMK A01 T10231038  RH  089%=      5-min Rain = 0
KST3 200810Z 22005KT M02/M04 A3024 RMK A01 T10231038  RH  089%=      5-min Rain = 0
KST3 200811Z 21006KT M02/M04 A3024 RMK A01 T10231039  RH  089%=      5-min Rain = 0
KST3 200812Z 21006KT M02/M04 A3024 RMK A01 T10241040  RH  089%=      5-min Rain = 0
KST3 200813Z 21005KT M02/M04 A3024 RMK A01 T10241040  RH  089%=      5-min Rain = 0
KST3 200814Z 21005KT M02/M04 A3024 RMK A01 T10241040  RH  089%=      5-min Rain = 0
KST3 200815Z 20005KT M02/M04 A3024 RMK A01 T10241040  RH  089%=      5-min Rain = 0
KST3 200816Z 20005KT M02/M04 A3024 RMK A01 T10241040  RH  089%=      5-min Rain = 0
KST3 200817Z 20005KT M02/M04 A3024 RMK A01 T10241040  RH  089%=      5-min Rain = 0
KST3 200818Z 20005KT M02/M04 A3024 RMK A01 T10241039  RH  089%=      5-min Rain = 0
KST3 200819Z 20005KT M02/M04 A3024 RMK A01 T10231039  RH  089%=      5-min Rain = 0
KST3 200820Z 21005KT M02/M04 A3024 RMK A01 T10231040  RH  088%=      5-min Rain = 0
KST3 200821Z 21005KT M02/M04 A3024 RMK A01 T10221039  RH  089%=      5-min Rain = 0
KST3 200822Z 21004KT M02/M04 A3024 RMK A01 T10221039  RH  088%=      5-min Rain = 0
KST3 200823Z 19004KT M02/M04 A3024 RMK A01 T10211038  RH  088%=      5-min Rain = 0
KST3 200824Z 18005KT M02/M04 A3025 RMK A01 T10201038  RH  087%=      5-min Rain = 0
KST3 200825Z 18005KT M02/M04 A3025 RMK A01 T10191038  RH  087%=      5-min Rain = 0
KST3 200826Z 19005KT M02/M04 A3025 RMK A01 T10181038  RH  086%=      5-min Rain = 0
KST3 200827Z 20005KT M02/M04 A3025 RMK A01 T10181039  RH  086%=      5-min Rain = 0
KST3 200828Z 20005KT M02/M04 A3025 RMK A01 T10191041  RH  085%=      5-min Rain = 0
KST3 200829Z 20005KT M02/M04 A3025 RMK A01 T10201042  RH  085%=      5-min Rain = 0
KST3 200830Z 21005KT M02/M04 A3025 RMK A01 T10211041  RH  086%=      5-min Rain = 0
KST3 200831Z 21005KT M02/M04 A3025 RMK A01 T10211041  RH  086%=      5-min Rain = 0
KST3 200832Z 21005KT M02/M04 A3025 RMK A01 T10211041  RH  086%=      5-min Rain = 0
KST3 200833Z 21006KT M02/M04 A3025 RMK A01 T10211042  RH  086%=      5-min Rain = 0
KST3 200834Z 21005KT M02/M04 A3025 RMK A01 T10221043  RH  085%=      5-min Rain = 0
KST3 200835Z 21006KT M02/M05 A3025 RMK A01 T10241045  RH  085%=      5-min Rain = 0
KST3 200836Z 21006KT M03/M05 A3025 RMK A01 T10261047  RH  085%=      5-min Rain = 0
KST3 200837Z 21006KT M03/M05 A3025 RMK A01 T10281048  RH  086%=      5-min Rain = 0
KST3 200838Z 21006KT M03/M05 A3025 RMK A01 T10291047  RH  087%=      5-min Rain = 0
KST3 200839Z 22005KT M03/M05 A3025 RMK A01 T10291047  RH  087%=      5-min Rain = 0
KST3 200840Z 22006KT M03/M05 A3025 RMK A01 T10291047  RH  088%=      5-min Rain = 0
KST3 200841Z 22006KT M03/M05 A3024 RMK A01 T10281046  RH  088%=      5-min Rain = 0
KST3 200842Z 22006KT M03/M05 A3024 RMK A01 T10281046  RH  087%=      5-min Rain = 0
KST3 200843Z 22005KT M03/M05 A3024 RMK A01 T10291047  RH  087%=      5-min Rain = 0
KST3 200844Z 22006KT M03/M05 A3024 RMK A01 T10281046  RH  087%=      5-min Rain = 0
KST3 200845Z 23006KT M03/M05 A3024 RMK A01 T10291046  RH  088%=      5-min Rain = 0
KST3 200846Z 23006KT M03/M05 A3024 RMK A01 T10281046  RH  088%=      5-min Rain = 0
KST3 200847Z 23006KT M03/M05 A3025 RMK A01 T10281046  RH  087%=      5-min Rain = 0
KST3 200848Z 23006KT M03/M05 A3025 RMK A01 T10281046  RH  087%=      5-min Rain = 0
KST3 200849Z 23006KT M03/M05 A3025 RMK A01 T10281046  RH  087%=      5-min Rain = 0
KST3 200850Z 23006KT M03/M05 A3025 RMK A01 T10281046  RH  087%=      5-min Rain = 0
KST3 200851Z 24005KT M03/M05 A3025 RMK A01 T10281046  RH  087%=      5-min Rain = 0
KST3 200852Z 24006KT M03/M05 A3025 RMK A01 T10281047  RH  087%=      5-min Rain = 0
KST3 200853Z 23006KT M03/M05 A3025 RMK A01 T10291048  RH  087%=      5-min Rain = 0
KST3 200854Z 23006KT M03/M05 A3025 RMK A01 T10301049  RH  087%=      5-min Rain = 0
KST3 200855Z 22006KT M03/M05 A3025 RMK A01 T10301050  RH  087%=      5-min Rain = 0
KST3 200856Z 22006KT M03/M05 A3025 RMK A01 T10301049  RH  087%=      5-min Rain = 0
KST3 200857Z 22006KT M03/M05 A3025 RMK A01 T10301048  RH  087%=      5-min Rain = 0
KST3 200858Z 21007KT M03/M05 A3025 RMK A01 T10301048  RH  087%=      5-min Rain = 0
KST3 200859Z 21006KT M03/M05 A3024 RMK A01 T10281047  RH  087%=      5-min Rain = 0
KST3 200900Z 22006KT M03/M05 A3024 RMK A01 T10281047  RH  087%=      5-min Rain = 0
KST3 200901Z 22006KT M03/M05 A3024 RMK A01 T10281048  RH  086%=      5-min Rain = 0
KST3 200902Z 22007KT M03/M05 A3024 RMK A01 T10281049  RH  086%=      5-min Rain = 0
KST3 200903Z 22008KT M03/M05 A3024 RMK A01 T10281049  RH  085%=      5-min Rain = 0
KST3 200904Z 22007KT M03/M05 A3024 RMK A01 T10281050  RH  085%=      5-min Rain = 0
KST3 200905Z 22008KT M03/M05 A3024 RMK A01 T10301052  RH  085%=      5-min Rain = 0
KST3 200906Z 21008KT M03/M05 A3024 RMK A01 T10311053  RH  085%=      5-min Rain = 0
KST3 200907Z 22007KT M03/M05 A3024 RMK A01 T10321052  RH  086%=      5-min Rain = 0
KST3 200908Z 22007KT M03/M05 A3024 RMK A01 T10321052  RH  086%=      5-min Rain = 0
KST3 200909Z 22006KT M03/M05 A3024 RMK A01 T10331052  RH  086%=      5-min Rain = 0
KST3 200910Z 22007KT M03/M05 A3024 RMK A01 T10341052  RH  087%=      5-min Rain = 0
KST3 200911Z 22007KT M03/M05 A3024 RMK A01 T10341053  RH  087%=      5-min Rain = 0
KST3 200912Z 22006KT M03/M05 A3024 RMK A01 T10341052  RH  087%=      5-min Rain = 0
KST3 200913Z 22007KT M03/M05 A3024 RMK A01 T10341052  RH  087%=      5-min Rain = 0
KST3 200914Z 22007KT M04/M05 A3024 RMK A01 T10351053  RH  087%=      5-min Rain = 0
KST3 200915Z 22007KT M04/M05 A3024 RMK A01 T10351053  RH  088%=      5-min Rain = 0
KST3 200916Z 22007KT M04/M05 A3024 RMK A01 T10351052  RH  088%=      5-min Rain = 0
KST3 200917Z 22007KT M04/M05 A3024 RMK A01 T10351052  RH  088%=      5-min Rain = 0
KST3 200918Z 22007KT M04/M05 A3024 RMK A01 T10351052  RH  088%=      5-min Rain = 0
KST3 200919Z 21007KT M04/M05 A3024 RMK A01 T10351052  RH  088%=      5-min Rain = 0
KST3 200920Z 21007KT M04/M05 A3024 RMK A01 T10351052  RH  088%=      5-min Rain = 0
KST3 200921Z 21007KT M03/M05 A3024 RMK A01 T10341052  RH  087%=      5-min Rain = 0
KST3 200922Z 22007KT M03/M05 A3024 RMK A01 T10341053  RH  087%=      5-min Rain = 0
KST3 200923Z 21007KT M03/M05 A3024 RMK A01 T10341053  RH  087%=      5-min Rain = 0
KST3 200924Z 21007KT M03/M05 A3024 RMK A01 T10341053  RH  087%=      5-min Rain = 0
KST3 200925Z 21006KT M03/M05 A3024 RMK A01 T10341053  RH  087%=      5-min Rain = 0
KST3 200926Z 21006KT M03/M05 A3024 RMK A01 T10331052  RH  087%=      5-min Rain = 0
KST3 200927Z 21006KT M03/M05 A3024 RMK A01 T10331052  RH  086%=      5-min Rain = 0
KST3 200928Z 21006KT M03/M05 A3024 RMK A01 T10331052  RH  087%=      5-min Rain = 0
KST3 200929Z 22007KT M03/M05 A3024 RMK A01 T10331052  RH  087%=      5-min Rain = 0
KST3 200930Z 22006KT M03/M05 A3024 RMK A01 T10341053  RH  087%=      5-min Rain = 0
KST3 200931Z 22007KT M04/M05 A3024 RMK A01 T10351054  RH  087%=      5-min Rain = 0
KST3 200932Z 22007KT M04/M05 A3024 RMK A01 T10351054  RH  087%=      5-min Rain = 0
KST3 200933Z 22006KT M04/M05 A3024 RMK A01 T10361054  RH  087%=      5-min Rain = 0
KST3 200934Z 22006KT M04/M05 A3024 RMK A01 T10361053  RH  088%=      5-min Rain = 0
KST3 200935Z 22006KT M04/M05 A3024 RMK A01 T10361053  RH  088%=      5-min Rain = 0
KST3 200936Z 22006KT M04/M05 A3024 RMK A01 T10371054  RH  088%=      5-min Rain = 0
KST3 200937Z 23006KT M04/M06 A3024 RMK A01 T10381055  RH  088%=      5-min Rain = 0
KST3 200938Z 23007KT M04/M06 A3023 RMK A01 T10391055  RH  088%=      5-min Rain = 0
KST3 200939Z 23006KT M04/M06 A3023 RMK A01 T10391055  RH  089%=      5-min Rain = 0
KST3 200940Z 23006KT M04/M05 A3023 RMK A01 T10391054  RH  090%=      5-min Rain = 0
KST3 200941Z 23006KT M04/M05 A3023 RMK A01 T10391053  RH  090%=      5-min Rain = 0
KST3 200942Z 23006KT M04/M05 A3023 RMK A01 T10391053  RH  090%=      5-min Rain = 0
KST3 200943Z 23007KT M04/M05 A3023 RMK A01 T10391052  RH  091%=      5-min Rain = 0
KST3 200944Z 23007KT M04/M05 A3023 RMK A01 T10391052  RH  091%=      5-min Rain = 0
KST3 200945Z 23007KT M04/M05 A3023 RMK A01 T10391051  RH  092%=      5-min Rain = 0
KST3 200946Z 23008KT M04/M05 A3023 RMK A01 T10401051  RH  092%=      5-min Rain = 0
KST3 200947Z 23008KT M04/M05 A3023 RMK A01 T10391050  RH  092%=      5-min Rain = 0
KST3 200948Z 23008KT M04/M05 A3023 RMK A01 T10391050  RH  092%=      5-min Rain = 0
KST3 200949Z 23009KT M04/M05 A3023 RMK A01 T10401050  RH  093%=      5-min Rain = 0
KST3 200950Z 23009KT M04/M05 A3023 RMK A01 T10391049  RH  093%=      5-min Rain = 0
KST3 200951Z 23009KT M04/M05 A3023 RMK A01 T10391049  RH  093%=      5-min Rain = 0
KST3 200952Z 23008KT M04/M05 A3022 RMK A01 T10391049  RH  093%=      5-min Rain = 0
KST3 200953Z 23008KT M04/M05 A3022 RMK A01 T10391049  RH  093%=      5-min Rain = 0
KST3 200954Z 23009KT M04/M05 A3022 RMK A01 T10401050  RH  093%=      5-min Rain = 0
KST3 200955Z 23010KT M04/M05 A3022 RMK A01 T10401049  RH  093%=      5-min Rain = 0
KST3 200956Z 23010KT M04/M05 A3022 RMK A01 T10401049  RH  094%=      5-min Rain = 0
KST3 200957Z 23010KT M04/M05 A3022 RMK A01 T10381046  RH  094%=      5-min Rain = 0
KST3 200958Z 23010KT M04/M05 A3022 RMK A01 T10371045  RH  094%=      5-min Rain = 0
KST3 200959Z 23009KT M04/M04 A3022 RMK A01 T10361044  RH  094%=      5-min Rain = 0
KST3 201000Z 23009KT M04/M04 A3022 RMK A01 T10351044  RH  094%=      5-min Rain = 0
KST3 201001Z 22009KT M04/M04 A3022 RMK A01 T10351044  RH  094%=      5-min Rain = 0
KST3 201002Z 22009KT M04/M04 A3022 RMK A01 T10351044  RH  093%=      5-min Rain = 0
KST3 201003Z 23009KT M04/M04 A3022 RMK A01 T10351044  RH  093%=      5-min Rain = 0
KST3 201004Z 23010KT M04/M04 A3022 RMK A01 T10351044  RH  093%=      5-min Rain = 0
KST3 201005Z 23009KT M04/M04 A3022 RMK A01 T10351044  RH  094%=      5-min Rain = 0
KST3 201006Z 23009KT M04/M04 A3022 RMK A01 T10351044  RH  094%=      5-min Rain = 0
KST3 201007Z 23010KT M04/M04 A3022 RMK A01 T10351043  RH  094%=      5-min Rain = 0
KST3 201008Z 23010KT M03/M04 A3022 RMK A01 T10341043  RH  094%=      5-min Rain = 0
KST3 201009Z 23010KT M03/M04 A3022 RMK A01 T10341043  RH  094%=      5-min Rain = 0
KST3 201010Z 23010KT M03/M04 A3022 RMK A01 T10341043  RH  094%=      5-min Rain = 0
KST3 201011Z 23010KT M03/M04 A3022 RMK A01 T10341043  RH  094%=      5-min Rain = 0
KST3 201012Z 22010KT M03/M04 A3022 RMK A01 T10341042  RH  094%=      5-min Rain = 0
KST3 201013Z 22010KT M03/M04 A3022 RMK A01 T10341042  RH  094%=      5-min Rain = 0
KST3 201014Z 22010KT M03/M04 A3022 RMK A01 T10341043  RH  094%=      5-min Rain = 0
KST3 201015Z 22009KT M03/M04 A3022 RMK A01 T10341043  RH  094%=      5-min Rain = 0
KST3 201016Z 21010KT M03/M04 A3022 RMK A01 T10341042  RH  094%=      5-min Rain = 0
KST3 201017Z 21010KT M03/M04 A3022 RMK A01 T10331042  RH  094%=      5-min Rain = 0
KST3 201018Z 22011KT M03/M04 A3022 RMK A01 T10321042  RH  093%=      5-min Rain = 0
KST3 201019Z 21010KT M03/M04 A3022 RMK A01 T10321041  RH  093%=      5-min Rain = 0
KST3 201020Z 21011KT M03/M04 A3022 RMK A01 T10311041  RH  093%=      5-min Rain = 0
KST3 201021Z 21010KT M03/M04 A3022 RMK A01 T10311042  RH  092%=      5-min Rain = 0
KST3 201022Z 21011KT M03/M04 A3022 RMK A01 T10321043  RH  092%=      5-min Rain = 0
KST3 201023Z 21010KT M03/M04 A3022 RMK A01 T10321044  RH  092%=      5-min Rain = 0
KST3 201024Z 21010KT M03/M04 A3022 RMK A01 T10321044  RH  092%=      5-min Rain = 0
KST3 201025Z 21010KT M03/M04 A3021 RMK A01 T10331044  RH  092%=      5-min Rain = 0
KST3 201026Z 21010KT M03/M04 A3021 RMK A01 T10331044  RH  092%=      5-min Rain = 0
KST3 201027Z 21011KT M03/M04 A3021 RMK A01 T10331044  RH  092%=      5-min Rain = 0
KST3 201028Z 21010KT M03/M04 A3021 RMK A01 T10331044  RH  092%=      5-min Rain = 0
KST3 201029Z 21010KT M03/M04 A3021 RMK A01 T10331044  RH  092%=      5-min Rain = 0
KST3 201030Z 21010KT M03/M04 A3021 RMK A01 T10331044  RH  092%=      5-min Rain = 0
KST3 201031Z 21011KT M03/M04 A3021 RMK A01 T10331044  RH  092%=      5-min Rain = 0
KST3 201032Z 21010KT M03/M04 A3021 RMK A01 T10331043  RH  093%=      5-min Rain = 0
KST3 201033Z 21009KT M03/M04 A3021 RMK A01 T10331043  RH  093%=      5-min Rain = 0
KST3 201034Z 21010KT M03/M04 A3021 RMK A01 T10331043  RH  093%=      5-min Rain = 0
KST3 201035Z 21010KT M03/M04 A3021 RMK A01 T10331043  RH  093%=      5-min Rain = 0
KST3 201036Z 21011KT M03/M04 A3021 RMK A01 T10331043  RH  093%=      5-min Rain = 0
KST3 201037Z 21010KT M03/M04 A3021 RMK A01 T10341044  RH  093%=      5-min Rain = 0
KST3 201038Z 20010KT M03/M04 A3021 RMK A01 T10341043  RH  093%=      5-min Rain = 0
KST3 201039Z 21010KT M03/M04 A3021 RMK A01 T10331043  RH  093%=      5-min Rain = 0
KST3 201040Z 21009KT M03/M04 A3021 RMK A01 T10331043  RH  093%=      5-min Rain = 0
KST3 201041Z 21010KT M03/M04 A3021 RMK A01 T10331043  RH  093%=      5-min Rain = 0
KST3 201042Z 21009KT M03/M04 A3021 RMK A01 T10341043  RH  093%=      5-min Rain = 0
KST3 201043Z 21009KT M03/M04 A3021 RMK A01 T10331043  RH  093%=      5-min Rain = 0
KST3 201044Z 21010KT M03/M04 A3021 RMK A01 T10331043  RH  093%=      5-min Rain = 0
KST3 201045Z 21010KT M03/M04 A3021 RMK A01 T10331043  RH  093%=      5-min Rain = 0
KST3 201046Z 21010KT M03/M04 A3021 RMK A01 T10341044  RH  093%=      5-min Rain = 0
KST3 201047Z 21011KT M03/M04 A3021 RMK A01 T10341044  RH  093%=      5-min Rain = 0
KST3 201048Z 21010KT M03/M04 A3021 RMK A01 T10341044  RH  092%=      5-min Rain = 0
KST3 201049Z 21010KT M03/M04 A3021 RMK A01 T10331044  RH  092%=      5-min Rain = 0
KST3 201050Z 21010KT M03/M04 A3021 RMK A01 T10341044  RH  092%=      5-min Rain = 0
KST3 201051Z 21009KT M03/M05 A3021 RMK A01 T10341045  RH  092%=      5-min Rain = 0
KST3 201052Z 21009KT M03/M05 A3021 RMK A01 T10331045  RH  092%=      5-min Rain = 0
KST3 201053Z 21009KT M03/M05 A3021 RMK A01 T10331045  RH  092%=      5-min Rain = 0
KST3 201054Z 21009KT M03/M05 A3021 RMK A01 T10341045  RH  092%=      5-min Rain = 0
KST3 201055Z 21009KT M03/M05 A3021 RMK A01 T10341045  RH  092%=      5-min Rain = 0
KST3 201056Z 21009KT M03/M05 A3021 RMK A01 T10341045  RH  092%=      5-min Rain = 0
KST3 201057Z 21010KT M03/M05 A3021 RMK A01 T10341045  RH  092%=      5-min Rain = 0
KST3 201058Z 21010KT M03/M04 A3021 RMK A01 T10341044  RH  093%=      5-min Rain = 0
KST3 201059Z 21010KT M03/M04 A3021 RMK A01 T10341044  RH  093%=      5-min Rain = 0
KST3 201100Z 21010KT M03/M04 A3021 RMK A01 T10341044  RH  093%=      5-min Rain = 0
KST3 201101Z 21010KT M03/M04 A3021 RMK A01 T10341044  RH  093%=      5-min Rain = 0
KST3 201102Z 21010KT M03/M04 A3021 RMK A01 T10341044  RH  093%=      5-min Rain = 0
KST3 201103Z 21011KT M03/M04 A302 RMK A01 T10341044  RH  093%=      5-min Rain = 0
KST3 201104Z 21011KT M03/M04 A302 RMK A01 T10341044  RH  093%=      5-min Rain = 0
KST3 201105Z 21011KT M03/M04 A302 RMK A01 T10331044  RH  093%=      5-min Rain = 0
KST3 201106Z 21010KT M03/M04 A302 RMK A01 T10331044  RH  092%=      5-min Rain = 0
KST3 201107Z 21011KT M03/M04 A302 RMK A01 T10331044  RH  092%=      5-min Rain = 0
KST3 201108Z 21012KT M03/M04 A302 RMK A01 T10331043  RH  092%=      5-min Rain = 0
KST3 201109Z 21012KT M03/M04 A302 RMK A01 T10321043  RH  092%=      5-min Rain = 0
KST3 201110Z 21013KT M03/M04 A302 RMK A01 T10311043  RH  092%=      5-min Rain = 0
KST3 201111Z 21013KT M03/M04 A302 RMK A01 T10301042  RH  092%=      5-min Rain = 0
KST3 201112Z 22013KT M03/M04 A302 RMK A01 T10291042  RH  091%=      5-min Rain = 0
KST3 201113Z 22014KT M03/M04 A302 RMK A01 T10291042  RH  091%=      5-min Rain = 0
KST3 201114Z 22015KT M03/M04 A302 RMK A01 T10281042  RH  090%=      5-min Rain = 0
KST3 201115Z 21014KT M03/M04 A302 RMK A01 T10271041  RH  090%=      5-min Rain = 0
KST3 201116Z 21013KT M03/M04 A302 RMK A01 T10271042  RH  089%=      5-min Rain = 0
KST3 201117Z 21012KT M03/M04 A3019 RMK A01 T10271042  RH  089%=      5-min Rain = 0
KST3 201118Z 21013KT M03/M04 A3019 RMK A01 T10271042  RH  089%=      5-min Rain = 0
KST3 201119Z 21012KT M03/M04 A3019 RMK A01 T10271043  RH  089%=      5-min Rain = 0
KST3 201120Z 21012KT M03/M04 A3019 RMK A01 T10281043  RH  089%=      5-min Rain = 0
KST3 201121Z 21013KT M03/M04 A3019 RMK A01 T10281044  RH  089%=      5-min Rain = 0
KST3 201122Z 21012KT M03/M04 A3019 RMK A01 T10291044  RH  089%=      5-min Rain = 0
KST3 201123Z 21012KT M03/M04 A3019 RMK A01 T10291044  RH  090%=      5-min Rain = 0
KST3 201124Z 21012KT M03/M04 A3019 RMK A01 T10291044  RH  090%=      5-min Rain = 0
KST3 201125Z 21013KT M03/M04 A3019 RMK A01 T10291044  RH  090%=      5-min Rain = 0
KST3 201126Z 22013KT M03/M04 A3019 RMK A01 T10301044  RH  090%=      5-min Rain = 0
KST3 201127Z 22013KT M03/M04 A3019 RMK A01 T10301044  RH  090%=      5-min Rain = 0
KST3 201128Z 22013KT M03/M04 A3019 RMK A01 T10291044  RH  090%=      5-min Rain = 0
KST3 201129Z 22013KT M03/M04 A3019 RMK A01 T10291044  RH  090%=      5-min Rain = 0
KST3 201130Z 22013KT M03/M04 A3019 RMK A01 T10291043  RH  090%=      5-min Rain = 0
KST3 201131Z 22013KT M03/M04 A3019 RMK A01 T10281043  RH  089%=      5-min Rain = 0
KST3 201132Z 22012KT M03/M04 A3019 RMK A01 T10271043  RH  089%=      5-min Rain = 0
KST3 201133Z 22014KT M03/M04 A3019 RMK A01 T10271043  RH  089%=      5-min Rain = 0
KST3 201134Z 22013KT M03/M04 A3019 RMK A01 T10281043  RH  089%=      5-min Rain = 0
KST3 201135Z 21013KT M03/M04 A3019 RMK A01 T10281043  RH  089%=      5-min Rain = 0
KST3 201136Z 21013KT M03/M04 A3019 RMK A01 T10281043  RH  089%=      5-min Rain = 0
KST3 201137Z 21012KT M03/M04 A3018 RMK A01 T10281043  RH  089%=      5-min Rain = 0
KST3 201138Z 21013KT M03/M04 A3018 RMK A01 T10271043  RH  089%=      5-min Rain = 0
KST3 201139Z 21012KT M03/M04 A3018 RMK A01 T10281043  RH  089%=      5-min Rain = 0
KST3 201140Z 21013KT M03/M04 A3018 RMK A01 T10281043  RH  089%=      5-min Rain = 0
KST3 201141Z 22013KT M03/M04 A3018 RMK A01 T10271043  RH  089%=      5-min Rain = 0
KST3 201142Z 22012KT M03/M04 A3018 RMK A01 T10271043  RH  089%=      5-min Rain = 0
KST3 201143Z 22013KT M03/M04 A3018 RMK A01 T10271043  RH  089%=      5-min Rain = 0
KST3 201144Z 22014KT M03/M04 A3018 RMK A01 T10271044  RH  089%=      5-min Rain = 0
KST3 201145Z 21014KT M03/M04 A3017 RMK A01 T10271044  RH  089%=      5-min Rain = 0
KST3 201146Z 21014KT M03/M04 A3017 RMK A01 T10271044  RH  089%=      5-min Rain = 0
KST3 201147Z 21014KT M03/M04 A3017 RMK A01 T10271044  RH  088%=      5-min Rain = 0
KST3 201148Z 21014KT M03/M04 A3017 RMK A01 T10271044  RH  088%=      5-min Rain = 0
KST3 201149Z 21013KT M03/M04 A3017 RMK A01 T10281044  RH  088%=      5-min Rain = 0
KST3 201150Z 21014KT M03/M04 A3017 RMK A01 T10281044  RH  088%=      5-min Rain = 0
KST3 201151Z 21013KT M03/M04 A3017 RMK A01 T10281044  RH  088%=      5-min Rain = 0
KST3 201152Z 21013KT M03/M04 A3017 RMK A01 T10281044  RH  088%=      5-min Rain = 0
KST3 201153Z 21014KT M03/M04 A3017 RMK A01 T10271044  RH  088%=      5-min Rain = 0
KST3 201154Z 21013KT M03/M04 A3017 RMK A01 T10271044  RH  088%=      5-min Rain = 0
KST3 201155Z 21014KT M03/M04 A3017 RMK A01 T10271044  RH  088%=      5-min Rain = 0
KST3 201156Z 21013KT M03/M04 A3017 RMK A01 T10271044  RH  088%=      5-min Rain = 0
KST3 201157Z 21014KT M03/M05 A3017 RMK A01 T10271045  RH  088%=      5-min Rain = 0
KST3 201158Z 21014KT M03/M04 A3017 RMK A01 T10271044  RH  088%=      5-min Rain = 0
KST3 201159Z 21014KT M03/M04 A3017 RMK A01 T10271044  RH  088%=      5-min Rain = 0
KST3 201200Z 21013KT M03/M05 A3017 RMK A01 T10271045  RH  088%=      5-min Rain = 0
KST3 201201Z 21014KT M03/M05 A3017 RMK A01 T10271045  RH  088%=      5-min Rain = 0
KST3 201202Z 21014KT M03/M05 A3017 RMK A01 T10281045  RH  088%=      5-min Rain = 0
KST3 201203Z 21014KT M03/M05 A3017 RMK A01 T10281045  RH  088%=      5-min Rain = 0
KST3 201204Z 21014KT M03/M05 A3017 RMK A01 T10281045  RH  088%=      5-min Rain = 0
KST3 201205Z 21014KT M03/M05 A3017 RMK A01 T10281045  RH  088%=      5-min Rain = 0
KST3 201206Z 21014KT M03/M05 A3017 RMK A01 T10281045  RH  088%=      5-min Rain = 0
KST3 201207Z 21013KT M03/M05 A3017 RMK A01 T10281045  RH  088%=      5-min Rain = 0
KST3 201208Z 21014KT M03/M05 A3017 RMK A01 T10281045  RH  088%=      5-min Rain = 0
KST3 201209Z 21014KT M03/M05 A3017 RMK A01 T10291046  RH  088%=      5-min Rain = 0
KST3 201210Z 21014KT M03/M05 A3016 RMK A01 T10291046  RH  088%=      5-min Rain = 0
KST3 201211Z 21015KT M03/M05 A3016 RMK A01 T10291046  RH  088%=      5-min Rain = 0
KST3 201212Z 21014KT M03/M05 A3016 RMK A01 T10291045  RH  088%=      5-min Rain = 0
KST3 201213Z 21015KT M03/M05 A3016 RMK A01 T10291046  RH  088%=      5-min Rain = 0
KST3 201214Z 21015KT M03/M05 A3016 RMK A01 T10291046  RH  088%=      5-min Rain = 0
KST3 201215Z 21016KT M03/M05 A3016 RMK A01 T10291046  RH  088%=      5-min Rain = 0
KST3 201216Z 21014KT M03/M05 A3016 RMK A01 T10281046  RH  088%=      5-min Rain = 0
KST3 201217Z 21015KT M03/M05 A3016 RMK A01 T10291046  RH  088%=      5-min Rain = 0
KST3 201218Z 21016KT M03/M05 A3016 RMK A01 T10291046  RH  088%=      5-min Rain = 0
KST3 201219Z 21016KT M03/M05 A3016 RMK A01 T10291046  RH  088%=      5-min Rain = 0
KST3 201220Z 21016KT M03/M05 A3016 RMK A01 T10291046  RH  088%=      5-min Rain = 0
KST3 201221Z 21016KT M03/M05 A3016 RMK A01 T10291046  RH  088%=      5-min Rain = 0
KST3 201222Z 21016KT M03/M05 A3016 RMK A01 T10291046  RH  088%=      5-min Rain = 0
KST3 201223Z 21016KT M03/M05 A3016 RMK A01 T10291046  RH  088%=      5-min Rain = 0
KST3 201224Z 21016KT M03/M05 A3016 RMK A01 T10291046  RH  088%=      5-min Rain = 0
KST3 201225Z 21015KT M03/M05 A3016 RMK A01 T10291046  RH  088%=      5-min Rain = 0
KST3 201226Z 21015KT M03/M05 A3016 RMK A01 T10301046  RH  088%=      5-min Rain = 0
KST3 201227Z 21015KT M03/M05 A3016 RMK A01 T10301047  RH  088%=      5-min Rain = 0
KST3 201228Z 21014KT M03/M05 A3016 RMK A01 T10301047  RH  089%=      5-min Rain = 0
KST3 201229Z 21014KT M03/M05 A3016 RMK A01 T10311047  RH  089%=      5-min Rain = 0
KST3 201230Z 21015KT M03/M05 A3016 RMK A01 T10311047  RH  089%=      5-min Rain = 0
KST3 201231Z 21014KT M03/M05 A3016 RMK A01 T10311047  RH  089%=      5-min Rain = 0
KST3 201232Z 21015KT M03/M05 A3016 RMK A01 T10311047  RH  089%=      5-min Rain = 0
KST3 201233Z 21014KT M03/M05 A3016 RMK A01 T10311047  RH  089%=      5-min Rain = 0
KST3 201234Z 21015KT M03/M05 A3016 RMK A01 T10321047  RH  089%=      5-min Rain = 0
KST3 201235Z 21014KT M03/M05 A3016 RMK A01 T10321047  RH  089%=      5-min Rain = 0
KST3 201236Z 21014KT M03/M05 A3016 RMK A01 T10321047  RH  089%=      5-min Rain = 0
KST3 201237Z 21014KT M03/M05 A3016 RMK A01 T10321047  RH  089%=      5-min Rain = 0
KST3 201238Z 21014KT M03/M05 A3016 RMK A01 T10321047  RH  089%=      5-min Rain = 0
KST3 201239Z 21013KT M03/M05 A3016 RMK A01 T10321047  RH  089%=      5-min Rain = 0
KST3 201240Z 21013KT M03/M05 A3016 RMK A01 T10321047  RH  089%=      5-min Rain = 0
KST3 201241Z 21013KT M03/M05 A3016 RMK A01 T10321047  RH  089%=      5-min Rain = 0
KST3 201242Z 21012KT M03/M05 A3016 RMK A01 T10321047  RH  089%=      5-min Rain = 0
KST3 201243Z 22012KT M03/M05 A3016 RMK A01 T10321047  RH  089%=      5-min Rain = 0
KST3 201244Z 22012KT M03/M05 A3016 RMK A01 T10321047  RH  089%=      5-min Rain = 0
KST3 201245Z 22012KT M03/M05 A3016 RMK A01 T10311046  RH  089%=      5-min Rain = 0
KST3 201246Z 22012KT M03/M05 A3016 RMK A01 T10311046  RH  089%=      5-min Rain = 0
KST3 201247Z 21011KT M03/M05 A3016 RMK A01 T10311046  RH  089%=      5-min Rain = 0
KST3 201248Z 21012KT M03/M05 A3016 RMK A01 T10311046  RH  089%=      5-min Rain = 0
KST3 201249Z 21011KT M03/M05 A3016 RMK A01 T10311046  RH  089%=      5-min Rain = 0
KST3 201250Z 21011KT M03/M05 A3016 RMK A01 T10311047  RH  089%=      5-min Rain = 0
KST3 201251Z 21011KT M03/M05 A3016 RMK A01 T10321047  RH  089%=      5-min Rain = 0
KST3 201252Z 22012KT M03/M05 A3016 RMK A01 T10321047  RH  089%=      5-min Rain = 0
KST3 201253Z 22012KT M03/M05 A3016 RMK A01 T10321047  RH  089%=      5-min Rain = 0
KST3 201254Z 22012KT M03/M05 A3016 RMK A01 T10321047  RH  090%=      5-min Rain = 0
KST3 201255Z 22012KT M03/M05 A3016 RMK A01 T10321047  RH  090%=      5-min Rain = 0
KST3 201256Z 22012KT M03/M05 A3016 RMK A01 T10331047  RH  090%=      5-min Rain = 0
KST3 201257Z 22012KT M03/M05 A3016 RMK A01 T10331047  RH  090%=      5-min Rain = 0
KST3 201258Z 22012KT M03/M05 A3016 RMK A01 T10331047  RH  090%=      5-min Rain = 0
KST3 201259Z 22012KT M03/M05 A3016 RMK A01 T10331047  RH  090%=      5-min Rain = 0
KST3 201300Z 22013KT M03/M05 A3016 RMK A01 T10331047  RH  090%=      5-min Rain = 0
KST3 201301Z 23012KT M03/M05 A3016 RMK A01 T10331047  RH  090%=      5-min Rain = 0
KST3 201302Z 23012KT M03/M05 A3016 RMK A01 T10341048  RH  090%=      5-min Rain = 0
KST3 201303Z 23012KT M03/M05 A3016 RMK A01 T10341048  RH  090%=      5-min Rain = 0
KST3 201304Z 23013KT M03/M05 A3016 RMK A01 T10341048  RH  090%=      5-min Rain = 0
KST3 201305Z 23013KT M03/M05 A3016 RMK A01 T10341048  RH  091%=      5-min Rain = 0
KST3 201306Z 23013KT M03/M05 A3016 RMK A01 T10341047  RH  091%=      5-min Rain = 0
KST3 201307Z 23013KT M03/M05 A3016 RMK A01 T10341047  RH  091%=      5-min Rain = 0
KST3 201308Z 23013KT M03/M05 A3016 RMK A01 T10331047  RH  090%=      5-min Rain = 0
KST3 201309Z 23013KT M03/M05 A3016 RMK A01 T10331047  RH  090%=      5-min Rain = 0
KST3 201310Z 23013KT M03/M05 A3016 RMK A01 T10331047  RH  090%=      5-min Rain = 0
KST3 201311Z 23012KT M03/M05 A3016 RMK A01 T10321046  RH  090%=      5-min Rain = 0
KST3 201312Z 23013KT M03/M05 A3016 RMK A01 T10311046  RH  090%=      5-min Rain = 0
KST3 201313Z 23013KT M03/M05 A3016 RMK A01 T10311046  RH  089%=      5-min Rain = 0
KST3 201314Z 23014KT M03/M05 A3016 RMK A01 T10301045  RH  089%=      5-min Rain = 0
KST3 201315Z 23014KT M03/M05 A3016 RMK A01 T10291045  RH  089%=      5-min Rain = 0
KST3 201316Z 22013KT M03/M05 A3016 RMK A01 T10281045  RH  088%=      5-min Rain = 0
KST3 201317Z 22013KT M03/M05 A3016 RMK A01 T10281045  RH  088%=      5-min Rain = 0
KST3 201318Z 22014KT M03/M05 A3016 RMK A01 T10281045  RH  088%=      5-min Rain = 0
KST3 201319Z 22013KT M03/M04 A3016 RMK A01 T10271044  RH  088%=      5-min Rain = 0
KST3 201320Z 22014KT M03/M05 A3016 RMK A01 T10271045  RH  087%=      5-min Rain = 0
KST3 201321Z 22013KT M03/M05 A3016 RMK A01 T10271045  RH  087%=      5-min Rain = 0
KST3 201322Z 22013KT M03/M05 A3016 RMK A01 T10271045  RH  087%=      5-min Rain = 0
KST3 201323Z 22013KT M03/M05 A3016 RMK A01 T10271045  RH  087%=      5-min Rain = 0
KST3 201324Z 22013KT M03/M05 A3016 RMK A01 T10261045  RH  087%=      5-min Rain = 0
KST3 201325Z 22012KT M03/M05 A3016 RMK A01 T10261045  RH  087%=      5-min Rain = 0
KST3 201326Z 22013KT M03/M05 A3016 RMK A01 T10261045  RH  087%=      5-min Rain = 0
KST3 201327Z 22013KT M03/M05 A3016 RMK A01 T10261045  RH  087%=      5-min Rain = 0
KST3 201328Z 22013KT M03/M05 A3016 RMK A01 T10261046  RH  087%=      5-min Rain = 0
KST3 201329Z 23013KT M03/M05 A3016 RMK A01 T10261046  RH  087%=      5-min Rain = 0
KST3 201330Z 23013KT M03/M05 A3016 RMK A01 T10261046  RH  087%=      5-min Rain = 0
KST3 201331Z 23013KT M03/M05 A3016 RMK A01 T10271046  RH  086%=      5-min Rain = 0
KST3 201332Z 23012KT M03/M05 A3016 RMK A01 T10271047  RH  086%=      5-min Rain = 0
KST3 201333Z 23013KT M03/M05 A3016 RMK A01 T10291048  RH  087%=      5-min Rain = 0
KST3 201334Z 23013KT M03/M05 A3016 RMK A01 T10291048  RH  087%=      5-min Rain = 0
KST3 201335Z 23013KT M03/M05 A3016 RMK A01 T10301048  RH  087%=      5-min Rain = 0
KST3 201336Z 23014KT M03/M05 A3016 RMK A01 T10301047  RH  088%=      5-min Rain = 0
KST3 201337Z 22014KT M03/M05 A3016 RMK A01 T10301047  RH  088%=      5-min Rain = 0
KST3 201338Z 22013KT M03/M05 A3016 RMK A01 T10301048  RH  088%=      5-min Rain = 0
KST3 201339Z 22014KT M03/M05 A3016 RMK A01 T10291047  RH  088%=      5-min Rain = 0
KST3 201340Z 22013KT M03/M05 A3016 RMK A01 T10291047  RH  088%=      5-min Rain = 0
KST3 201341Z 22014KT M03/M05 A3016 RMK A01 T10281046  RH  088%=      5-min Rain = 0
KST3 201342Z 22014KT M03/M05 A3015 RMK A01 T10281046  RH  087%=      5-min Rain = 0
KST3 201343Z 22013KT M03/M05 A3015 RMK A01 T10271045  RH  087%=      5-min Rain = 0
KST3 201344Z 22013KT M03/M05 A3015 RMK A01 T10261045  RH  087%=      5-min Rain = 0
KST3 201345Z 22013KT M03/M05 A3015 RMK A01 T10251045  RH  086%=      5-min Rain = 0
KST3 201346Z 22013KT M03/M05 A3015 RMK A01 T10251045  RH  086%=      5-min Rain = 0
KST3 201347Z 22013KT M03/M05 A3015 RMK A01 T10251045  RH  086%=      5-min Rain = 0
KST3 201348Z 22014KT M03/M05 A3016 RMK A01 T10251045  RH  086%=      5-min Rain = 0
KST3 201349Z 22014KT M03/M05 A3016 RMK A01 T10251045  RH  086%=      5-min Rain = 0
KST3 201350Z 22014KT M03/M05 A3016 RMK A01 T10251045  RH  086%=      5-min Rain = 0
KST3 201351Z 22014KT M03/M05 A3016 RMK A01 T10251045  RH  086%=      5-min Rain = 0
KST3 201352Z 22014KT M03/M05 A3016 RMK A01 T10251045  RH  086%=      5-min Rain = 0
KST3 201353Z 22014KT M03/M05 A3016 RMK A01 T10251045  RH  086%=      5-min Rain = 0
KST3 201354Z 22014KT M03/M05 A3015 RMK A01 T10251045  RH  087%=      5-min Rain = 0
KST3 201355Z 22014KT M03/M04 A3015 RMK A01 T10251044  RH  086%=      5-min Rain = 0
KST3 201356Z 22014KT M02/M04 A3015 RMK A01 T10241044  RH  086%=      5-min Rain = 0
KST3 201357Z 22014KT M02/M04 A3015 RMK A01 T10231043  RH  086%=      5-min Rain = 0
KST3 201358Z 22014KT M02/M04 A3015 RMK A01 T10231043  RH  086%=      5-min Rain = 0
KST3 201359Z 22015KT M02/M04 A3016 RMK A01 T10221043  RH  086%=      5-min Rain = 0
KST3 201400Z 22015KT M02/M04 A3015 RMK A01 T10211043  RH  085%=      5-min Rain = 0
KST3 201401Z 22014KT M02/M04 A3015 RMK A01 T10211043  RH  085%=      5-min Rain = 0
KST3 201402Z 22015KT M02/M04 A3015 RMK A01 T10211043  RH  085%=      5-min Rain = 0
KST3 201403Z 22015KT M02/M04 A3015 RMK A01 T10211042  RH  085%=      5-min Rain = 0
KST3 201404Z 22014KT M02/M04 A3015 RMK A01 T10201042  RH  085%=      5-min Rain = 0
KST3 201405Z 22014KT M02/M04 A3015 RMK A01 T10201042  RH  085%=      5-min Rain = 0
KST3 201406Z 22015KT M02/M04 A3015 RMK A01 T10201042  RH  085%=      5-min Rain = 0
KST3 201407Z 22015KT M02/M04 A3015 RMK A01 T10201042  RH  085%=      5-min Rain = 0
KST3 201408Z 22015KT M02/M04 A3015 RMK A01 T10191041  RH  085%=      5-min Rain = 0
KST3 201409Z 22015KT M02/M04 A3015 RMK A01 T10181041  RH  084%=      5-min Rain = 0
KST3 201410Z 22015KT M02/M04 A3015 RMK A01 T10181041  RH  084%=      5-min Rain = 0
KST3 201411Z 22015KT M02/M04 A3015 RMK A01 T10181041  RH  084%=      5-min Rain = 0
KST3 201412Z 22015KT M02/M04 A3015 RMK A01 T10181041  RH  084%=      5-min Rain = 0
KST3 201413Z 23015KT M02/M04 A3015 RMK A01 T10181041  RH  084%=      5-min Rain = 0
KST3 201414Z 23016KT M02/M04 A3015 RMK A01 T10181041  RH  084%=      5-min Rain = 0
KST3 201415Z 22015KT M02/M04 A3015 RMK A01 T10181041  RH  084%=      5-min Rain = 0
KST3 201416Z 23016KT M02/M04 A3015 RMK A01 T10181041  RH  084%=      5-min Rain = 0
KST3 201417Z 23016KT M02/M04 A3015 RMK A01 T10171041  RH  084%=      5-min Rain = 0
KST3 201418Z 23015KT M02/M04 A3015 RMK A01 T10161040  RH  084%=      5-min Rain = 0
KST3 201419Z 22015KT M02/M04 A3015 RMK A01 T10161040  RH  084%=      5-min Rain = 0
KST3 201420Z 22016KT M02/M04 A3015 RMK A01 T10151039  RH  084%=      5-min Rain = 0
KST3 201421Z 22014KT M02/M04 A3015 RMK A01 T10161039  RH  084%=      5-min Rain = 0
KST3 201422Z 22015KT M02/M04 A3015 RMK A01 T10161039  RH  084%=      5-min Rain = 0
KST3 201423Z 22016KT M02/M04 A3015 RMK A01 T10151039  RH  084%=      5-min Rain = 0
KST3 201424Z 22015KT M02/M04 A3015 RMK A01 T10151039  RH  084%=      5-min Rain = 0
KST3 201425Z 22015KT M01/M04 A3015 RMK A01 T10141038  RH  084%=      5-min Rain = 0
KST3 201426Z 22015KT M01/M04 A3015 RMK A01 T10141038  RH  084%=      5-min Rain = 0
KST3 201427Z 22015KT M01/M04 A3015 RMK A01 T10131037  RH  084%=      5-min Rain = 0
KST3 201428Z 22017KT M01/M04 A3015 RMK A01 T10131037  RH  083%=      5-min Rain = 0
KST3 201429Z 23015KT M01/M04 A3015 RMK A01 T10121037  RH  083%=      5-min Rain = 0
KST3 201430Z 23016KT M01/M04 A3015 RMK A01 T10111037  RH  083%=      5-min Rain = 0
KST3 201431Z 22016KT M01/M04 A3015 RMK A01 T10101037  RH  082%=      5-min Rain = 0
KST3 201432Z 22015KT M01/M04 A3015 RMK A01 T10101036  RH  082%=      5-min Rain = 0
KST3 201433Z 23014KT M01/M04 A3015 RMK A01 T10101036  RH  083%=      5-min Rain = 0
KST3 201434Z 23016KT M01/M04 A3015 RMK A01 T10101036  RH  083%=      5-min Rain = 0
KST3 201435Z 22015KT M01/M04 A3016 RMK A01 T10101035  RH  083%=      5-min Rain = 0
KST3 201436Z 23014KT M01/M04 A3016 RMK A01 T10101035  RH  083%=      5-min Rain = 0
KST3 201437Z 23014KT M01/M04 A3016 RMK A01 T10101035  RH  083%=      5-min Rain = 0
KST3 201438Z 23014KT M01/M04 A3016 RMK A01 T10101035  RH  083%=      5-min Rain = 0
KST3 201439Z 22015KT M01/M03 A3016 RMK A01 T10101034  RH  083%=      5-min Rain = 0
KST3 201440Z 23014KT M01/M04 A3016 RMK A01 T10101035  RH  083%=      5-min Rain = 0
KST3 201441Z 23015KT M01/M03 A3016 RMK A01 T10101034  RH  083%=      5-min Rain = 0
KST3 201442Z 23015KT M01/M04 A3016 RMK A01 T10101035  RH  083%=      5-min Rain = 0
KST3 201443Z 23014KT M01/M03 A3016 RMK A01 T10101034  RH  083%=      5-min Rain = 0
KST3 201444Z 22014KT M01/M03 A3016 RMK A01 T10101034  RH  083%=      5-min Rain = 0
KST3 201445Z 22013KT M01/M03 A3016 RMK A01 T10101034  RH  083%=      5-min Rain = 0
KST3 201446Z 23014KT M01/M03 A3016 RMK A01 T10101034  RH  084%=      5-min Rain = 0
KST3 201447Z 23014KT M01/M03 A3016 RMK A01 T10101034  RH  084%=      5-min Rain = 0
KST3 201448Z 23013KT M01/M03 A3016 RMK A01 T10101034  RH  084%=      5-min Rain = 0
KST3 201449Z 23013KT M01/M03 A3016 RMK A01 T10091033  RH  084%=      5-min Rain = 0
KST3 201450Z 22013KT M01/M03 A3016 RMK A01 T10091033  RH  084%=      5-min Rain = 0
KST3 201451Z 22014KT M01/M03 A3016 RMK A01 T10091033  RH  084%=      5-min Rain = 0
KST3 201452Z 23012KT M01/M03 A3016 RMK A01 T10091033  RH  084%=      5-min Rain = 0
KST3 201453Z 23012KT M01/M03 A3016 RMK A01 T10091033  RH  084%=      5-min Rain = 0
KST3 201454Z 23012KT M01/M03 A3016 RMK A01 T10081033  RH  084%=      5-min Rain = 0
KST3 201455Z 23012KT M01/M03 A3016 RMK A01 T10081033  RH  083%=      5-min Rain = 0
KST3 201456Z 23012KT M01/M03 A3016 RMK A01 T10081033  RH  083%=      5-min Rain = 0
KST3 201457Z 23012KT M01/M03 A3016 RMK A01 T10081033  RH  083%=      5-min Rain = 0
KST3 201458Z 23011KT M01/M03 A3016 RMK A01 T10081033  RH  083%=      5-min Rain = 0
KST3 201459Z 23012KT M01/M03 A3016 RMK A01 T10071032  RH  083%=      5-min Rain = 0
KST3 201500Z 23011KT M01/M03 A3016 RMK A01 T10071032  RH  083%=      5-min Rain = 0
KST3 201501Z 23011KT M01/M03 A3015 RMK A01 T10071032  RH  083%=      5-min Rain = 0
KST3 201502Z 23012KT M01/M03 A3015 RMK A01 T10071032  RH  083%=      5-min Rain = 0
KST3 201503Z 23012KT M01/M03 A3015 RMK A01 T10071032  RH  083%=      5-min Rain = 0
KST3 201504Z 23010KT M01/M03 A3015 RMK A01 T10061031  RH  083%=      5-min Rain = 0
KST3 201505Z 23013KT M01/M03 A3015 RMK A01 T10061030  RH  084%=      5-min Rain = 0
KST3 201506Z 23013KT M01/M03 A3015 RMK A01 T10051030  RH  083%=      5-min Rain = 0
KST3 201507Z 23011KT M00/M03 A3015 RMK A01 T10041030  RH  083%=      5-min Rain = 0
KST3 201508Z 23011KT M00/M03 A3015 RMK A01 T10041029  RH  083%=      5-min Rain = 0
KST3 201509Z 23012KT M00/M03 A3015 RMK A01 T10041029  RH  083%=      5-min Rain = 0
KST3 201510Z 23011KT M00/M03 A3015 RMK A01 T10031028  RH  083%=      5-min Rain = 0
KST3 201511Z 23011KT M00/M03 A3015 RMK A01 T10031028  RH  083%=      5-min Rain = 0
KST3 201512Z 23011KT M00/M03 A3015 RMK A01 T10031028  RH  083%=      5-min Rain = 0
KST3 201513Z 23012KT M00/M03 A3015 RMK A01 T10021028  RH  083%=      5-min Rain = 0
KST3 201514Z 24012KT M00/M03 A3015 RMK A01 T10021029  RH  082%=      5-min Rain = 0
KST3 201515Z 24011KT M00/M03 A3015 RMK A01 T10021028  RH  082%=      5-min Rain = 0
KST3 201516Z 24011KT M00/M03 A3015 RMK A01 T10021028  RH  083%=      5-min Rain = 0
KST3 201517Z 24011KT M00/M03 A3015 RMK A01 T10021028  RH  083%=      5-min Rain = 0
KST3 201518Z 23011KT M00/M03 A3015 RMK A01 T10011027  RH  083%=      5-min Rain = 0
KST3 201519Z 24012KT M00/M03 A3015 RMK A01 T10011027  RH  082%=      5-min Rain = 0
KST3 201520Z 23013KT M00/M03 A3015 RMK A01 T10011027  RH  082%=      5-min Rain = 0
KST3 201521Z 23012KT 00/03 A3015 RMK A01 T00000-27  RH  082%=      5-min Rain = 0
KST3 201522Z 23014KT 00/03 A3015 RMK A01 T00-00-28  RH  082%=      5-min Rain = 0
KST3 201523Z 23013KT 00/03 A3015 RMK A01 T00-00-28  RH  081%=      5-min Rain = 0
KST3 201524Z 23013KT 00/03 A3015 RMK A01 T00000-28  RH  081%=      5-min Rain = 0
KST3 201525Z 23013KT 00/M03 A3015 RMK A01 T00011028  RH  081%=      5-min Rain = 0
KST3 201526Z 23016KT 00/M03 A3015 RMK A01 T00011028  RH  081%=      5-min Rain = 0
KST3 201527Z 23015KT 00/M03 A3015 RMK A01 T00011028  RH  081%=      5-min Rain = 0
KST3 201528Z 23014KT 00/M03 A3015 RMK A01 T00021028  RH  081%=      5-min Rain = 0
KST3 201529Z 23015KT 00/M03 A3015 RMK A01 T00021027  RH  081%=      5-min Rain = 0
KST3 201530Z 23016KT 00/M03 A3015 RMK A01 T00021027  RH  081%=      5-min Rain = 0
KST3 201531Z 23016KT 00/M03 A3015 RMK A01 T00031028  RH  080%=      5-min Rain = 0
KST3 201532Z 23014KT 00/M03 A3015 RMK A01 T00031027  RH  080%=      5-min Rain = 0
KST3 201533Z 23017KT 00/M03 A3015 RMK A01 T00041027  RH  080%=      5-min Rain = 0
KST3 201534Z 23016KT 00/M03 A3015 RMK A01 T00041027  RH  079%=      5-min Rain = 0
KST3 201535Z 23016KT 01/M03 A3015 RMK A01 T00051027  RH  079%=      5-min Rain = 0
KST3 201536Z 23012KT 01/M03 A3015 RMK A01 T00051026  RH  079%=      5-min Rain = 0
KST3 201537Z 23014KT 01/M02 A3015 RMK A01 T00071024  RH  080%=      5-min Rain = 0
KST3 201538Z 23014KT 01/M03 A3015 RMK A01 T00071025  RH  079%=      5-min Rain = 0
KST3 201539Z 23016KT 01/M02 A3015 RMK A01 T00081024  RH  079%=      5-min Rain = 0
KST3 201540Z 23016KT 01/M03 A3015 RMK A01 T00091025  RH  078%=      5-min Rain = 0
KST3 201541Z 23015KT 01/M03 A3015 RMK A01 T00091025  RH  078%=      5-min Rain = 0
KST3 201542Z 24015KT 01/M02 A3015 RMK A01 T00101024  RH  078%=      5-min Rain = 0
KST3 201543Z 24014KT 01/M02 A3015 RMK A01 T00101023  RH  078%=      5-min Rain = 0
KST3 201544Z 23014KT 01/M02 A3015 RMK A01 T00111023  RH  078%=      5-min Rain = 0
KST3 201545Z 23012KT 01/M02 A3015 RMK A01 T00121023  RH  078%=      5-min Rain = 0
KST3 201546Z 23015KT 01/M02 A3015 RMK A01 T00121021  RH  078%=      5-min Rain = 0
KST3 201547Z 23014KT 01/M02 A3015 RMK A01 T00131023  RH  077%=      5-min Rain = 0
KST3 201548Z 23014KT 01/M02 A3015 RMK A01 T00131023  RH  077%=      5-min Rain = 0
KST3 201549Z 23016KT 01/M02 A3015 RMK A01 T00141022  RH  077%=      5-min Rain = 0
KST3 201550Z 23016KT 02/M02 A3015 RMK A01 T00151024  RH  075%=      5-min Rain = 0
KST3 201551Z 23016KT 02/M02 A3015 RMK A01 T00151023  RH  076%=      5-min Rain = 0
KST3 201552Z 23017KT 02/M02 A3015 RMK A01 T00151023  RH  076%=      5-min Rain = 0
KST3 201553Z 23016KT 02/M02 A3015 RMK A01 T00151023  RH  075%=      5-min Rain = 0
KST3 201554Z 23016KT 02/M02 A3015 RMK A01 T00161023  RH  076%=      5-min Rain = 0
KST3 201555Z 23016KT 02/M02 A3015 RMK A01 T00161023  RH  075%=      5-min Rain = 0
KST3 201556Z 23015KT 02/M02 A3015 RMK A01 T00171023  RH  075%=      5-min Rain = 0
KST3 201557Z 23014KT 02/M02 A3015 RMK A01 T00181021  RH  076%=      5-min Rain = 0
KST3 201558Z 24016KT 02/M02 A3015 RMK A01 T00181021  RH  075%=      5-min Rain = 0
KST3 201559Z 24016KT 02/M02 A3015 RMK A01 T00181023  RH  074%=      5-min Rain = 0
KST3 201600Z 24016KT 02/M02 A3015 RMK A01 T00181023  RH  074%=      5-min Rain = 0
KST3 201601Z 23013KT 02/M02 A3015 RMK A01 T00191023  RH  074%=      5-min Rain = 0
KST3 201602Z 23012KT 02/M02 A3015 RMK A01 T00211019  RH  075%=      5-min Rain = 0
KST3 201603Z 23012KT 02/M02 A3015 RMK A01 T00241015  RH  075%=      5-min Rain = 0
KST3 201604Z 23012KT 03/M02 A3015 RMK A01 T00261016  RH  074%=      5-min Rain = 0
KST3 201605Z 24013KT 03/M02 A3016 RMK A01 T00271016  RH  073%=      5-min Rain = 0
KST3 201606Z 24014KT 03/M02 A3016 RMK A01 T00271020  RH  071%=      5-min Rain = 0
KST3 201607Z 24012KT 03/M02 A3016 RMK A01 T00251021  RH  071%=      5-min Rain = 0
KST3 201608Z 23014KT 03/M02 A3016 RMK A01 T00261020  RH  072%=      5-min Rain = 0
KST3 201609Z 23015KT 03/M02 A3016 RMK A01 T00261022  RH  071%=      5-min Rain = 0
KST3 201610Z 23014KT 03/M02 A3016 RMK A01 T00251022  RH  071%=      5-min Rain = 0
KST3 201611Z 24013KT 03/M02 A3016 RMK A01 T00261022  RH  071%=      5-min Rain = 0
KST3 201612Z 24012KT 03/M02 A3016 RMK A01 T00271018  RH  072%=      5-min Rain = 0
KST3 201613Z 23012KT 03/M02 A3016 RMK A01 T00291018  RH  071%=      5-min Rain = 0
KST3 201614Z 24013KT 03/M02 A3016 RMK A01 T00311018  RH  070%=      5-min Rain = 0
KST3 201615Z 24011KT 03/M02 A3016 RMK A01 T00311018  RH  070%=      5-min Rain = 0
KST3 201616Z 24012KT 03/M02 A3016 RMK A01 T00321018  RH  070%=      5-min Rain = 0
KST3 201617Z 24011KT 03/M02 A3016 RMK A01 T00321018  RH  070%=      5-min Rain = 0
KST3 201618Z 24011KT 03/M02 A3016 RMK A01 T00341015  RH  070%=      5-min Rain = 0
KST3 201619Z 24013KT 04/M01 A3016 RMK A01 T00361014  RH  070%=      5-min Rain = 0
KST3 201620Z 24013KT 04/M02 A3016 RMK A01 T00371018  RH  067%=      5-min Rain = 0
KST3 201621Z 23014KT 04/M02 A3016 RMK A01 T00361019  RH  067%=      5-min Rain = 0
KST3 201622Z 23012KT 04/M02 A3016 RMK A01 T00361018  RH  068%=      5-min Rain = 0
KST3 201623Z 23013KT 04/M02 A3016 RMK A01 T00371017  RH  068%=      5-min Rain = 0
KST3 201624Z 23011KT 04/M02 A3016 RMK A01 T00371016  RH  068%=      5-min Rain = 0
KST3 201625Z 25011KT 04/M01 A3016 RMK A01 T00411013  RH  068%=      5-min Rain = 0
KST3 201626Z 25014KT 04/M01 A3015 RMK A01 T00431014  RH  066%=      5-min Rain = 0
KST3 201627Z 24012KT 04/M02 A3015 RMK A01 T00431019  RH  064%=      5-min Rain = 0
KST3 201628Z 25013KT 04/M02 A3015 RMK A01 T00431019  RH  064%=      5-min Rain = 0
KST3 201629Z 25011KT 04/M02 A3015 RMK A01 T00431019  RH  064%=      5-min Rain = 0
KST3 201630Z 24012KT 04/M02 A3015 RMK A01 T00431018  RH  064%=      5-min Rain = 0
KST3 201631Z 24012KT 04/M02 A3015 RMK A01 T00441019  RH  064%=      5-min Rain = 0
KST3 201632Z 23011KT 04/M02 A3015 RMK A01 T00441018  RH  064%=      5-min Rain = 0
KST3 201633Z 24012KT 05/M02 A3015 RMK A01 T00451018  RH  064%=      5-min Rain = 0
KST3 201634Z 24013KT 05/M02 A3015 RMK A01 T00451022  RH  062%=      5-min Rain = 0
KST3 201635Z 24013KT 04/M02 A3015 RMK A01 T00431023  RH  062%=      5-min Rain = 0
KST3 201636Z 24012KT 04/M02 A3015 RMK A01 T00431023  RH  062%=      5-min Rain = 0
KST3 201637Z 24012KT 05/M02 A3015 RMK A01 T00451022  RH  062%=      5-min Rain = 0
KST3 201638Z 24012KT 04/M02 A3015 RMK A01 T00441022  RH  062%=      5-min Rain = 0
KST3 201639Z 23011KT 05/M02 A3015 RMK A01 T00451020  RH  063%=      5-min Rain = 0
KST3 201640Z 23012KT 05/M02 A3015 RMK A01 T00471021  RH  061%=      5-min Rain = 0
KST3 201641Z 25013KT 05/M02 A3015 RMK A01 T00471023  RH  060%=      5-min Rain = 0
KST3 201642Z 25013KT 05/M02 A3015 RMK A01 T00471024  RH  060%=      5-min Rain = 0
KST3 201643Z 24013KT 05/M02 A3015 RMK A01 T00471023  RH  060%=      5-min Rain = 0
KST3 201644Z 24011KT 05/M02 A3015 RMK A01 T00481022  RH  060%=      5-min Rain = 0
KST3 201645Z 25012KT 05/M02 A3015 RMK A01 T00491022  RH  060%=      5-min Rain = 0
KST3 201646Z 25010KT 05/M02 A3015 RMK A01 T00491023  RH  059%=      5-min Rain = 0
KST3 201647Z 23009KT 05/M02 A3015 RMK A01 T00521020  RH  060%=      5-min Rain = 0
KST3 201648Z 24009KT 05/M02 A3015 RMK A01 T00531021  RH  059%=      5-min Rain = 0
KST3 201649Z 24011KT 05/M02 A3016 RMK A01 T00541021  RH  059%=      5-min Rain = 0
KST3 201650Z 24011KT 05/M02 A3016 RMK A01 T00541021  RH  058%=      5-min Rain = 0
KST3 201651Z 24010KT 05/M02 A3016 RMK A01 T00541022  RH  058%=      5-min Rain = 0
KST3 201652Z 23010KT 05/M02 A3016 RMK A01 T00531021  RH  059%=      5-min Rain = 0
KST3 201653Z 23011KT 06/M02 A3016 RMK A01 T00551020  RH  058%=      5-min Rain = 0
KST3 201654Z 23010KT 06/M02 A3016 RMK A01 T00561021  RH  057%=      5-min Rain = 0
KST3 201655Z 24008KT 06/M02 A3016 RMK A01 T00561023  RH  057%=      5-min Rain = 0
KST3 201656Z 23010KT 06/M02 A3015 RMK A01 T00551022  RH  058%=      5-min Rain = 0
KST3 201657Z 23010KT 06/M02 A3015 RMK A01 T00571021  RH  057%=      5-min Rain = 0
KST3 201658Z 24009KT 06/M02 A3015 RMK A01 T00581022  RH  057%=      5-min Rain = 0
KST3 201659Z 22010KT 06/M02 A3015 RMK A01 T00581022  RH  057%=      5-min Rain = 0
KST3 201700Z 23009KT 06/M02 A3015 RMK A01 T00581021  RH  057%=      5-min Rain = 0
KST3 201701Z 24007KT 06/M02 A3015 RMK A01 T00601020  RH  057%=      5-min Rain = 0
KST3 201702Z 25009KT 06/M02 A3015 RMK A01 T00641016  RH  057%=      5-min Rain = 0
KST3 201703Z 25009KT 07/M02 A3015 RMK A01 T00661020  RH  055%=      5-min Rain = 0
KST3 201704Z 25008KT 06/M02 A3015 RMK A01 T00631021  RH  055%=      5-min Rain = 0
KST3 201705Z 24008KT 06/M02 A3015 RMK A01 T00621022  RH  055%=      5-min Rain = 0
KST3 201706Z 24009KT 06/M02 A3015 RMK A01 T00621021  RH  055%=      5-min Rain = 0
KST3 201707Z 23009KT 06/M02 A3015 RMK A01 T00641021  RH  055%=      5-min Rain = 0
KST3 201708Z 24008KT 06/M02 A3015 RMK A01 T00641023  RH  054%=      5-min Rain = 0
KST3 201709Z 25010KT 06/M02 A3015 RMK A01 T00641023  RH  054%=      5-min Rain = 0
KST3 201710Z 23008KT 06/M02 A3015 RMK A01 T00631024  RH  054%=      5-min Rain = 0
KST3 201711Z 24008KT 06/M02 A3015 RMK A01 T00631023  RH  054%=      5-min Rain = 0
KST3 201712Z 25008KT 06/M02 A3015 RMK A01 T00641022  RH  054%=      5-min Rain = 0
KST3 201713Z 25008KT 07/M02 A3015 RMK A01 T00651021  RH  054%=      5-min Rain = 0
KST3 201714Z 25010KT 07/M02 A3015 RMK A01 T00661022  RH  053%=      5-min Rain = 0
KST3 201715Z 25009KT 07/M03 A3015 RMK A01 T00651026  RH  052%=      5-min Rain = 0
KST3 201716Z 25009KT 06/M03 A3015 RMK A01 T00631026  RH  053%=      5-min Rain = 0
KST3 201717Z 24009KT 06/M03 A3015 RMK A01 T00631025  RH  054%=      5-min Rain = 0
KST3 201718Z 23009KT 06/M03 A3015 RMK A01 T00631025  RH  053%=      5-min Rain = 0
KST3 201719Z 24009KT 06/M03 A3015 RMK A01 T00631025  RH  053%=      5-min Rain = 0
KST3 201720Z 24007KT 06/M03 A3015 RMK A01 T00631025  RH  053%=      5-min Rain = 0
KST3 201721Z 22006KT 06/M02 A3015 RMK A01 T00641022  RH  054%=      5-min Rain = 0
KST3 201722Z 23007KT 07/M02 A3015 RMK A01 T00651022  RH  054%=      5-min Rain = 0
KST3 201723Z 23008KT 06/M02 A3015 RMK A01 T00641024  RH  053%=      5-min Rain = 0
KST3 201724Z 24007KT 06/M03 A3015 RMK A01 T00621026  RH  053%=      5-min Rain = 0
KST3 201725Z 25008KT 06/M03 A3015 RMK A01 T00601027  RH  054%=      5-min Rain = 0
KST3 201726Z 25008KT 06/M03 A3015 RMK A01 T00601026  RH  054%=      5-min Rain = 0
KST3 201727Z 25008KT 06/M03 A3015 RMK A01 T00621025  RH  054%=      5-min Rain = 0
KST3 201728Z 24007KT 06/M03 A3015 RMK A01 T00631025  RH  053%=      5-min Rain = 0
KST3 201729Z 24007KT 07/M02 A3014 RMK A01 T00651023  RH  053%=      5-min Rain = 0
KST3 201730Z 22007KT 07/M02 A3014 RMK A01 T00661024  RH  053%=      5-min Rain = 0
KST3 201731Z 25008KT 07/M02 A3014 RMK A01 T00661023  RH  053%=      5-min Rain = 0
KST3 201732Z 24008KT 07/M02 A3014 RMK A01 T00691023  RH  052%=      5-min Rain = 0
KST3 201733Z 24007KT 07/M02 A3014 RMK A01 T00701024  RH  051%=      5-min Rain = 0
KST3 201734Z 24008KT 07/M02 A3014 RMK A01 T00711024  RH  051%=      5-min Rain = 0
KST3 201735Z 24010KT 07/M03 A3014 RMK A01 T00721025  RH  050%=      5-min Rain = 0
KST3 201736Z 23008KT 07/M03 A3014 RMK A01 T00721025  RH  050%=      5-min Rain = 0
KST3 201737Z 26008KT 07/M02 A3014 RMK A01 T00721024  RH  050%=      5-min Rain = 0
KST3 201738Z 26009KT 07/M03 A3014 RMK A01 T00721025  RH  050%=      5-min Rain = 0
KST3 201739Z 25008KT 08/M02 A3014 RMK A01 T00751021  RH  051%=      5-min Rain = 0
KST3 201740Z 24009KT 08/M02 A3014 RMK A01 T00781022  RH  049%=      5-min Rain = 0
KST3 201741Z 23008KT 08/M03 A3014 RMK A01 T00771025  RH  048%=      5-min Rain = 0
KST3 201742Z 22009KT 07/M03 A3014 RMK A01 T00741026  RH  049%=      5-min Rain = 0
KST3 201743Z 24009KT 07/M02 A3014 RMK A01 T00741023  RH  050%=      5-min Rain = 0
KST3 201744Z 23010KT 08/M03 A3014 RMK A01 T00761025  RH  049%=      5-min Rain = 0
KST3 201745Z 24010KT 08/M03 A3014 RMK A01 T00761025  RH  049%=      5-min Rain = 0
KST3 201746Z 24010KT 08/M03 A3014 RMK A01 T00761025  RH  049%=      5-min Rain = 0
KST3 201747Z 24011KT 08/M02 A3014 RMK A01 T00771024  RH  049%=      5-min Rain = 0
KST3 201748Z 24009KT 08/M02 A3014 RMK A01 T00771024  RH  049%=      5-min Rain = 0
KST3 201749Z 23008KT 08/M02 A3014 RMK A01 T00791021  RH  049%=      5-min Rain = 0
KST3 201750Z 22011KT 08/M02 A3013 RMK A01 T00841019  RH  048%=      5-min Rain = 0
KST3 201751Z 22011KT 09/M02 A3013 RMK A01 T00851022  RH  047%=      5-min Rain = 0
KST3 201752Z 23009KT 08/M02 A3013 RMK A01 T00841024  RH  046%=      5-min Rain = 0
KST3 201753Z 22008KT 08/M02 A3013 RMK A01 T00841024  RH  047%=      5-min Rain = 0
KST3 201754Z 24008KT 09/M02 A3013 RMK A01 T00871022  RH  046%=      5-min Rain = 0
KST3 201755Z 23008KT 09/M02 A3013 RMK A01 T00881023  RH  046%=      5-min Rain = 0
KST3 201756Z 22008KT 09/M02 A3013 RMK A01 T00881023  RH  046%=      5-min Rain = 0
KST3 201757Z 24009KT 09/M02 A3013 RMK A01 T00891022  RH  046%=      5-min Rain = 0
KST3 201758Z 24010KT 09/M02 A3014 RMK A01 T00911023  RH  045%=      5-min Rain = 0
KST3 201759Z 23008KT 09/M03 A3014 RMK A01 T00881025  RH  045%=      5-min Rain = 0
KST3 201800Z 20007KT 09/M02 A3014 RMK A01 T00881023  RH  045%=      5-min Rain = 0
KST3 201801Z 21006KT 09/M02 A3014 RMK A01 T00901022  RH  045%=      5-min Rain = 0
KST3 201802Z 22005KT 09/M02 A3014 RMK A01 T00921022  RH  045%=      5-min Rain = 0
KST3 201803Z 24009KT 09/M02 A3014 RMK A01 T00931023  RH  044%=      5-min Rain = 0
KST3 201804Z 24006KT 09/M03 A3014 RMK A01 T00911027  RH  044%=      5-min Rain = 0
KST3 201805Z 22006KT 09/M03 A3014 RMK A01 T00881025  RH  045%=      5-min Rain = 0
KST3 201806Z 23009KT 09/M03 A3014 RMK A01 T00891025  RH  045%=      5-min Rain = 0
KST3 201807Z 22007KT 09/M02 A3014 RMK A01 T00911024  RH  044%=      5-min Rain = 0
KST3 201808Z 21008KT 09/M02 A3014 RMK A01 T00911024  RH  044%=      5-min Rain = 0
KST3 201809Z 23011KT 09/M02 A3013 RMK A01 T00931023  RH  044%=      5-min Rain = 0
KST3 201810Z 23009KT 09/M02 A3014 RMK A01 T00941024  RH  044%=      5-min Rain = 0
KST3 201811Z 22006KT 09/M03 A3014 RMK A01 T00921026  RH  044%=      5-min Rain = 0
KST3 201812Z 24010KT 09/M02 A3013 RMK A01 T00921023  RH  044%=      5-min Rain = 0
KST3 201813Z 24008KT 09/M03 A3014 RMK A01 T00931026  RH  043%=      5-min Rain = 0
KST3 201814Z 22008KT 09/M03 A3013 RMK A01 T00911027  RH  043%=      5-min Rain = 0
KST3 201815Z 23008KT 09/M03 A3013 RMK A01 T00911027  RH  043%=      5-min Rain = 0
KST3 201816Z 23007KT 09/M03 A3013 RMK A01 T00921026  RH  044%=      5-min Rain = 0
KST3 201817Z 24008KT 09/M03 A3013 RMK A01 T00931025  RH  043%=      5-min Rain = 0
KST3 201818Z 22008KT 09/M03 A3013 RMK A01 T00921025  RH  044%=      5-min Rain = 0
KST3 201819Z 21005KT 09/M03 A3013 RMK A01 T00921025  RH  044%=      5-min Rain = 0
KST3 201820Z 22008KT 09/M03 A3013 RMK A01 T00921025  RH  044%=      5-min Rain = 0
KST3 201821Z 22009KT 09/M02 A3013 RMK A01 T00931024  RH  044%=      5-min Rain = 0
KST3 201822Z 22008KT 10/M02 A3013 RMK A01 T00951024  RH  043%=      5-min Rain = 0
KST3 201823Z 23009KT 10/M02 A3013 RMK A01 T00961024  RH  043%=      5-min Rain = 0
KST3 201824Z 24008KT 10/M03 A3013 RMK A01 T00961025  RH  043%=      5-min Rain = 0
KST3 201825Z 24010KT 10/M03 A3013 RMK A01 T00951027  RH  042%=      5-min Rain = 0
KST3 201826Z 25009KT 10/M03 A3013 RMK A01 T00951028  RH  042%=      5-min Rain = 0
KST3 201827Z 24006KT 10/M03 A3013 RMK A01 T00951029  RH  042%=      5-min Rain = 0
KST3 201828Z 26006KT 09/M03 A3013 RMK A01 T00931029  RH  042%=      5-min Rain = 0
KST3 201829Z 25005KT 10/M02 A3013 RMK A01 T00971022  RH  043%=      5-min Rain = 0
KST3 201830Z 21007KT 10/M02 A3013 RMK A01 T01021020  RH  043%=      5-min Rain = 0
KST3 201831Z 22008KT 10/M03 A3013 RMK A01 T01021025  RH  041%=      5-min Rain = 0
KST3 201832Z 25006KT 10/M03 A3013 RMK A01 T01001026  RH  041%=      5-min Rain = 0
KST3 201833Z 25005KT 10/M03 A3013 RMK A01 T00991025  RH  042%=      5-min Rain = 0
KST3 201834Z 22008KT 10/M02 A3013 RMK A01 T01011022  RH  042%=      5-min Rain = 0
KST3 201835Z 23006KT 10/M02 A3013 RMK A01 T01041024  RH  041%=      5-min Rain = 0
KST3 201836Z 22005G10KT 10/M03 A3013 RMK A01 T01041025  RH  041%=      5-min Rain = 0
KST3 201837Z 23010KT 11/M03 A3013 RMK A01 T01051025  RH  040%=      5-min Rain = 0
KST3 201838Z 24009KT 10/M03 A3013 RMK A01 T01041027  RH  040%=      5-min Rain = 0
KST3 201839Z 23010KT 10/M03 A3013 RMK A01 T01001028  RH  041%=      5-min Rain = 0
KST3 201840Z 23008KT 10/M03 A3013 RMK A01 T00981026  RH  042%=      5-min Rain = 0
KST3 201841Z 23006KT 10/M03 A3013 RMK A01 T00971025  RH  042%=      5-min Rain = 0
KST3 201842Z 22007KT 10/M02 A3012 RMK A01 T00981023  RH  043%=      5-min Rain = 0
KST3 201843Z 23006KT 10/M02 A3012 RMK A01 T01001023  RH  042%=      5-min Rain = 0
KST3 201844Z 21007KT 10/M03 A3012 RMK A01 T01001026  RH  041%=      5-min Rain = 0
KST3 201845Z 20006KT 10/M03 A3012 RMK A01 T00991027  RH  041%=      5-min Rain = 0
KST3 201846Z 20006KT 10/M03 A3012 RMK A01 T00981027  RH  041%=      5-min Rain = 0
KST3 201847Z 19007KT 10/M03 A3012 RMK A01 T00981025  RH  042%=      5-min Rain = 0
KST3 201848Z 19008KT 10/M02 A3012 RMK A01 T01001024  RH  042%=      5-min Rain = 0
KST3 201849Z 19006KT 10/M03 A3012 RMK A01 T00991025  RH  042%=      5-min Rain = 0
KST3 201850Z 20008KT 10/M02 A3012 RMK A01 T00981024  RH  042%=      5-min Rain = 0
KST3 201851Z 21007KT 10/M02 A3012 RMK A01 T01001024  RH  042%=      5-min Rain = 0
KST3 201852Z 20006KT 10/M03 A3012 RMK A01 T00991025  RH  042%=      5-min Rain = 0
KST3 201853Z 19006KT 10/M02 A3012 RMK A01 T00991023  RH  042%=      5-min Rain = 0
KST3 201854Z 20007KT 10/M02 A3012 RMK A01 T01011022  RH  042%=      5-min Rain = 0
KST3 201855Z 22004KT 10/M03 A3012 RMK A01 T01031026  RH  041%=      5-min Rain = 0
KST3 201856Z 20006KT 10/M03 A3011 RMK A01 T01021026  RH  041%=      5-min Rain = 0
KST3 201857Z 21008KT 10/M02 A3011 RMK A01 T01021024  RH  041%=      5-min Rain = 0
KST3 201858Z 19006KT 10/M02 A3011 RMK A01 T01011024  RH  042%=      5-min Rain = 0
KST3 201859Z 19006KT 10/M02 A3011 RMK A01 T01011023  RH  042%=      5-min Rain = 0
KST3 201900Z 21006KT 10/M02 A3011 RMK A01 T01031021  RH  042%=      5-min Rain = 0
KST3 201901Z 22006KT 10/M02 A3011 RMK A01 T01031024  RH  041%=      5-min Rain = 0
KST3 201902Z 20004KT 10/M03 A3011 RMK A01 T01011026  RH  041%=      5-min Rain = 0
KST3 201903Z 19005KT 10/M02 A3011 RMK A01 T01001024  RH  042%=      5-min Rain = 0
KST3 201904Z 19006KT 10/M02 A3011 RMK A01 T01011023  RH  042%=      5-min Rain = 0
KST3 201905Z 18005KT 10/M02 A3011 RMK A01 T01021024  RH  041%=      5-min Rain = 0
KST3 201906Z 18006KT 10/M02 A3011 RMK A01 T01031023  RH  041%=      5-min Rain = 0
KST3 201907Z 19004KT 10/M03 A3011 RMK A01 T01021026  RH  041%=      5-min Rain = 0
KST3 201908Z 18006KT 10/M02 A3011 RMK A01 T01001024  RH  042%=      5-min Rain = 0
KST3 201909Z 18006KT 10/M02 A301 RMK A01 T01021023  RH  042%=      5-min Rain = 0
KST3 201910Z 19007KT 11/M02 A301 RMK A01 T01051021  RH  041%=      5-min Rain = 0
KST3 201911Z 21007KT 11/M02 A3011 RMK A01 T01071021  RH  041%=      5-min Rain = 0
KST3 201912Z 21006KT 11/M02 A3011 RMK A01 T01071023  RH  040%=      5-min Rain = 0
KST3 201913Z 21006KT 11/M03 A3011 RMK A01 T01051025  RH  040%=      5-min Rain = 0
KST3 201914Z 20008KT 10/M03 A3011 RMK A01 T01031026  RH  040%=      5-min Rain = 0
KST3 201915Z 20006KT 10/M03 A3011 RMK A01 T01031025  RH  041%=      5-min Rain = 0
KST3 201916Z 19007KT 10/M03 A301 RMK A01 T01031025  RH  041%=      5-min Rain = 0
KST3 201917Z 20004KT 10/M03 A301 RMK A01 T01041025  RH  040%=      5-min Rain = 0
KST3 201918Z 20003KT 10/M03 A301 RMK A01 T01031025  RH  040%=      5-min Rain = 0
KST3 201919Z 18005KT 11/M02 A301 RMK A01 T01051022  RH  041%=      5-min Rain = 0
KST3 201920Z 21006KT 11/M02 A301 RMK A01 T01081022  RH  040%=      5-min Rain = 0
KST3 201921Z 18007KT 11/M03 A301 RMK A01 T01071025  RH  039%=      5-min Rain = 0
KST3 201922Z 18005KT 11/M03 A301 RMK A01 T01061026  RH  039%=      5-min Rain = 0
KST3 201923Z 18005KT 11/M03 A301 RMK A01 T01051027  RH  040%=      5-min Rain = 0
KST3 201924Z 19007KT 11/M03 A301 RMK A01 T01051025  RH  040%=      5-min Rain = 0
KST3 201925Z 22008KT 11/M02 A301 RMK A01 T01071023  RH  040%=      5-min Rain = 0
KST3 201926Z 22006KT 11/M02 A301 RMK A01 T01091024  RH  039%=      5-min Rain = 0
KST3 201927Z 20005KT 11/M03 A301 RMK A01 T01081025  RH  039%=      5-min Rain = 0
KST3 201928Z 22006KT 11/M03 A301 RMK A01 T01071026  RH  039%=      5-min Rain = 0
KST3 201929Z 22006KT 11/M03 A301 RMK A01 T01081025  RH  039%=      5-min Rain = 0
KST3 201930Z 20007KT 11/M03 A301 RMK A01 T01071026  RH  039%=      5-min Rain = 0
KST3 201931Z 22007KT 11/M03 A301 RMK A01 T01071026  RH  039%=      5-min Rain = 0
KST3 201932Z 21007KT 11/M02 A301 RMK A01 T01091024  RH  039%=      5-min Rain = 0
KST3 201933Z 22005KT 11/M03 A301 RMK A01 T01091026  RH  039%=      5-min Rain = 0
KST3 201934Z 20006KT 11/M03 A3009 RMK A01 T01081025  RH  039%=      5-min Rain = 0
KST3 201935Z 20008KT 11/M02 A3009 RMK A01 T01111023  RH  039%=      5-min Rain = 0
KST3 201936Z 20008KT 11/M03 A3009 RMK A01 T01121025  RH  038%=      5-min Rain = 0
KST3 201937Z 20006KT 11/M03 A3009 RMK A01 T01111027  RH  038%=      5-min Rain = 0
KST3 201938Z 20004KT 11/M03 A3009 RMK A01 T01101025  RH  039%=      5-min Rain = 0
KST3 201939Z 18006KT 11/M02 A3009 RMK A01 T01131023  RH  039%=      5-min Rain = 0
KST3 201940Z 18006KT 11/M03 A3009 RMK A01 T01131026  RH  038%=      5-min Rain = 0
KST3 201941Z 19005KT 11/M03 A3009 RMK A01 T01121025  RH  038%=      5-min Rain = 0
KST3 201942Z 17006KT 11/M02 A3009 RMK A01 T01141024  RH  038%=      5-min Rain = 0
KST3 201943Z 16006KT 12/M02 A3009 RMK A01 T01161024  RH  037%=      5-min Rain = 0
KST3 201944Z 20007KT 12/M03 A3009 RMK A01 T01161025  RH  037%=      5-min Rain = 0
KST3 201945Z 22006KT 12/M03 A3009 RMK A01 T01161028  RH  037%=      5-min Rain = 0
KST3 201946Z 20004KT 11/M03 A3009 RMK A01 T01131027  RH  037%=      5-min Rain = 0
KST3 201947Z 17006KT 12/M03 A3008 RMK A01 T01161025  RH  037%=      5-min Rain = 0
KST3 201948Z 17005KT 11/M03 A3008 RMK A01 T01141028  RH  037%=      5-min Rain = 0
KST3 201949Z 16004KT 11/M03 A3008 RMK A01 T01111029  RH  037%=      5-min Rain = 0
KST3 201950Z 17005KT 11/M03 A3008 RMK A01 T01111028  RH  038%=      5-min Rain = 0
KST3 201951Z 19007KT 11/M03 A3008 RMK A01 T01121026  RH  038%=      5-min Rain = 0
KST3 201952Z 18006KT 11/M03 A3008 RMK A01 T01121027  RH  037%=      5-min Rain = 0
KST3 201953Z 19006KT 11/M03 A3008 RMK A01 T01121028  RH  037%=      5-min Rain = 0
KST3 201954Z 18006KT 11/M03 A3008 RMK A01 T01111029  RH  037%=      5-min Rain = 0
KST3 201955Z 20005KT 11/M03 A3008 RMK A01 T01101031  RH  037%=      5-min Rain = 0
KST3 201956Z 19007KT 11/M03 A3008 RMK A01 T01101029  RH  038%=      5-min Rain = 0
KST3 201957Z 19006KT 11/M03 A3008 RMK A01 T01101028  RH  038%=      5-min Rain = 0
KST3 201958Z 20007KT 11/M03 A3008 RMK A01 T01101028  RH  038%=      5-min Rain = 0
KST3 201959Z 20006KT 11/M03 A3008 RMK A01 T01091029  RH  038%=      5-min Rain = 0
KST3 202000Z 20008KT 11/M03 A3008 RMK A01 T01081029  RH  038%=      5-min Rain = 0
KST3 202001Z 19006KT 11/M03 A3008 RMK A01 T01091029  RH  038%=      5-min Rain = 0
KST3 202002Z 20005KT 11/M03 A3008 RMK A01 T01101027  RH  038%=      5-min Rain = 0
KST3 202003Z 20006KT 11/M03 A3008 RMK A01 T01131025  RH  038%=      5-min Rain = 0
KST3 202004Z 18009KT 11/M03 A3008 RMK A01 T01141027  RH  037%=      5-min Rain = 0
KST3 202005Z 18009KT 11/M03 A3007 RMK A01 T01131029  RH  037%=      5-min Rain = 0
KST3 202006Z 18008KT 11/M03 A3007 RMK A01 T01101032  RH  037%=      5-min Rain = 0
KST3 202007Z 18007KT 11/M03 A3007 RMK A01 T01081031  RH  037%=      5-min Rain = 0
KST3 202008Z 18007KT 11/M03 A3007 RMK A01 T01071031  RH  038%=      5-min Rain = 0
KST3 202009Z 19007KT 11/M03 A3007 RMK A01 T01071030  RH  038%=      5-min Rain = 0
KST3 202010Z 19007KT 11/M03 A3007 RMK A01 T01071030  RH  038%=      5-min Rain = 0
KST3 202011Z 18009KT 11/M03 A3007 RMK A01 T01071029  RH  038%=      5-min Rain = 0
KST3 202012Z 19007KT 11/M03 A3007 RMK A01 T01071029  RH  038%=      5-min Rain = 0
KST3 202013Z 19007KT 11/M03 A3007 RMK A01 T01071029  RH  038%=      5-min Rain = 0
KST3 202014Z 20009KT 11/M03 A3007 RMK A01 T01081029  RH  038%=      5-min Rain = 0
KST3 202015Z 20008KT 11/M03 A3007 RMK A01 T01071030  RH  038%=      5-min Rain = 0
KST3 202016Z 19007KT 11/M03 A3007 RMK A01 T01081029  RH  038%=      5-min Rain = 0
KST3 202017Z 19008KT 11/M03 A3007 RMK A01 T01071030  RH  038%=      5-min Rain = 0
KST3 202018Z 19007KT 11/M03 A3007 RMK A01 T01071030  RH  038%=      5-min Rain = 0
KST3 202019Z 19008KT 11/M03 A3007 RMK A01 T01071030  RH  038%=      5-min Rain = 0
KST3 202020Z 19008KT 11/M03 A3007 RMK A01 T01071031  RH  038%=      5-min Rain = 0
KST3 202021Z 19009KT 11/M03 A3007 RMK A01 T01071030  RH  038%=      5-min Rain = 0
KST3 202022Z 19009KT 11/M03 A3007 RMK A01 T01061031  RH  038%=      5-min Rain = 0
KST3 202023Z 19008KT 11/M03 A3007 RMK A01 T01061031  RH  038%=      5-min Rain = 0
KST3 202024Z 20007KT 11/M03 A3007 RMK A01 T01061032  RH  038%=      5-min Rain = 0
KST3 202025Z 19007KT 11/M03 A3007 RMK A01 T01061031  RH  038%=      5-min Rain = 0
KST3 202026Z 19006KT 11/M03 A3007 RMK A01 T01081030  RH  038%=      5-min Rain = 0
KST3 202027Z 20006KT 11/M03 A3007 RMK A01 T01081031  RH  038%=      5-min Rain = 0
KST3 202028Z 20006KT 11/M03 A3007 RMK A01 T01081030  RH  038%=      5-min Rain = 0
KST3 202029Z 20008KT 11/M03 A3006 RMK A01 T01081030  RH  038%=      5-min Rain = 0
KST3 202030Z 21008KT 11/M03 A3006 RMK A01 T01081032  RH  037%=      5-min Rain = 0
KST3 202031Z 19009KT 11/M03 A3006 RMK A01 T01071032  RH  038%=      5-min Rain = 0
KST3 202032Z 20008KT 11/M03 A3006 RMK A01 T01071032  RH  038%=      5-min Rain = 0
KST3 202033Z 20007KT 11/M03 A3006 RMK A01 T01081030  RH  038%=      5-min Rain = 0
KST3 202034Z 20008KT 11/M03 A3006 RMK A01 T01091031  RH  037%=      5-min Rain = 0
KST3 202035Z 20007KT 11/M03 A3006 RMK A01 T01091031  RH  037%=      5-min Rain = 0
KST3 202036Z 19008KT 11/M03 A3006 RMK A01 T01101031  RH  037%=      5-min Rain = 0
KST3 202037Z 20007KT 11/M03 A3006 RMK A01 T01101031  RH  037%=      5-min Rain = 0
KST3 202038Z 19008KT 11/M03 A3006 RMK A01 T01111030  RH  037%=      5-min Rain = 0
KST3 202039Z 20009KT 11/M03 A3006 RMK A01 T01111031  RH  037%=      5-min Rain = 0
KST3 202040Z 19008KT 11/M03 A3006 RMK A01 T01111031  RH  037%=      5-min Rain = 0
KST3 202041Z 18006KT 11/M03 A3006 RMK A01 T01121029  RH  037%=      5-min Rain = 0
KST3 202042Z 19008KT 11/M03 A3006 RMK A01 T01141029  RH  037%=      5-min Rain = 0
KST3 202043Z 19009KT 12/M03 A3006 RMK A01 T01151030  RH  036%=      5-min Rain = 0
KST3 202044Z 20007KT 12/M03 A3006 RMK A01 T01151030  RH  036%=      5-min Rain = 0
KST3 202045Z 19007KT 12/M03 A3006 RMK A01 T01161030  RH  036%=      5-min Rain = 0
KST3 202046Z 18007KT 12/M03 A3006 RMK A01 T01161030  RH  036%=      5-min Rain = 0
KST3 202047Z 19007KT 12/M03 A3006 RMK A01 T01171031  RH  036%=      5-min Rain = 0
KST3 202048Z 19008KT 12/M03 A3006 RMK A01 T01181030  RH  036%=      5-min Rain = 0
KST3 202049Z 20007KT 12/M03 A3006 RMK A01 T01181030  RH  035%=      5-min Rain = 0
KST3 202050Z 20008KT 12/M03 A3006 RMK A01 T01201029  RH  035%=      5-min Rain = 0
KST3 202051Z 21009KT 12/M03 A3006 RMK A01 T01221028  RH  035%=      5-min Rain = 0
KST3 202052Z 20006KT 12/M03 A3005 RMK A01 T01221030  RH  034%=      5-min Rain = 0
KST3 202053Z 19009KT 12/M03 A3005 RMK A01 T01221029  RH  035%=      5-min Rain = 0
KST3 202054Z 19008KT 12/M03 A3005 RMK A01 T01221031  RH  034%=      5-min Rain = 0
KST3 202055Z 19009KT 12/M03 A3005 RMK A01 T01211030  RH  035%=      5-min Rain = 0
KST3 202056Z 18008KT 12/M03 A3005 RMK A01 T01211030  RH  035%=      5-min Rain = 0
KST3 202057Z 17010KT 12/M03 A3005 RMK A01 T01201031  RH  035%=      5-min Rain = 0
KST3 202058Z 18007KT 12/M03 A3005 RMK A01 T01201031  RH  035%=      5-min Rain = 0
KST3 202059Z 19008KT 12/M03 A3005 RMK A01 T01211029  RH  035%=      5-min Rain = 0
KST3 202100Z 20008KT 12/M03 A3005 RMK A01 T01221031  RH  034%=      5-min Rain = 0
KST3 202101Z 20008KT 12/M03 A3005 RMK A01 T01201032  RH  034%=      5-min Rain = 0
KST3 202102Z 18008KT 12/M03 A3005 RMK A01 T01171034  RH  035%=      5-min Rain = 0
KST3 202103Z 19008KT 12/M03 A3005 RMK A01 T01151034  RH  035%=      5-min Rain = 0
KST3 202104Z 18007KT 11/M03 A3005 RMK A01 T01141034  RH  035%=      5-min Rain = 0
KST3 202105Z 20007KT 11/M03 A3004 RMK A01 T01131034  RH  036%=      5-min Rain = 0
KST3 202106Z 19008KT 12/M03 A3004 RMK A01 T01161031  RH  036%=      5-min Rain = 0
KST3 202107Z 18008KT 12/M03 A3004 RMK A01 T01171032  RH  035%=      5-min Rain = 0
KST3 202108Z 18007KT 12/M03 A3004 RMK A01 T01181032  RH  035%=      5-min Rain = 0
KST3 202109Z 19006KT 12/M03 A3004 RMK A01 T01181033  RH  035%=      5-min Rain = 0
KST3 202110Z 19007KT 12/M03 A3004 RMK A01 T01191032  RH  035%=      5-min Rain = 0
KST3 202111Z 19008KT 12/M03 A3004 RMK A01 T01211033  RH  034%=      5-min Rain = 0
KST3 202112Z 19007KT 12/M03 A3004 RMK A01 T01211033  RH  034%=      5-min Rain = 0
KST3 202113Z 19009KT 12/M03 A3004 RMK A01 T01211034  RH  034%=      5-min Rain = 0
KST3 202114Z 18009KT 12/M04 A3004 RMK A01 T01211036  RH  033%=      5-min Rain = 0
KST3 202115Z 19010KT 12/M04 A3004 RMK A01 T01201037  RH  033%=      5-min Rain = 0
KST3 202116Z 18009KT 12/M04 A3004 RMK A01 T01181040  RH  033%=      5-min Rain = 0
KST3 202117Z 18009KT 12/M04 A3003 RMK A01 T01171038  RH  034%=      5-min Rain = 0
KST3 202118Z 18009KT 12/M04 A3003 RMK A01 T01171036  RH  034%=      5-min Rain = 0
KST3 202119Z 17009KT 12/M04 A3003 RMK A01 T01171037  RH  034%=      5-min Rain = 0
KST3 202120Z 18007KT 12/M04 A3003 RMK A01 T01161036  RH  034%=      5-min Rain = 0
KST3 202121Z 19008KT 12/M04 A3003 RMK A01 T01161035  RH  035%=      5-min Rain = 0
KST3 202122Z 19010KT 12/M04 A3003 RMK A01 T01171035  RH  035%=      5-min Rain = 0
KST3 202123Z 19008KT 12/M04 A3003 RMK A01 T01171036  RH  034%=      5-min Rain = 0
KST3 202124Z 18010KT 12/M04 A3003 RMK A01 T01161036  RH  034%=      5-min Rain = 0
KST3 202125Z 19010KT 12/M04 A3003 RMK A01 T01161036  RH  034%=      5-min Rain = 0
KST3 202126Z 19008KT 12/M04 A3003 RMK A01 T01151037  RH  034%=      5-min Rain = 0
KST3 202127Z 19008KT 12/M04 A3003 RMK A01 T01151037  RH  035%=      5-min Rain = 0
KST3 202128Z 19008KT 11/M04 A3003 RMK A01 T01141036  RH  035%=      5-min Rain = 0
KST3 202129Z 19008KT 12/M04 A3003 RMK A01 T01151035  RH  035%=      5-min Rain = 0
KST3 202130Z 19008KT 12/M03 A3003 RMK A01 T01161034  RH  035%=      5-min Rain = 0
KST3 202131Z 20008KT 12/M03 A3003 RMK A01 T01181034  RH  034%=      5-min Rain = 0
KST3 202132Z 19009KT 12/M04 A3003 RMK A01 T01181035  RH  034%=      5-min Rain = 0
KST3 202133Z 18007KT 12/M03 A3003 RMK A01 T01181034  RH  034%=      5-min Rain = 0
KST3 202134Z 17009KT 12/M03 A3003 RMK A01 T01191034  RH  034%=      5-min Rain = 0
KST3 202135Z 17007KT 12/M03 A3003 RMK A01 T01191034  RH  034%=      5-min Rain = 0
KST3 202136Z 18006KT 12/M03 A3003 RMK A01 T01181034  RH  034%=      5-min Rain = 0
KST3 202137Z 19007KT 12/M03 A3003 RMK A01 T01191032  RH  035%=      5-min Rain = 0
KST3 202138Z 18010KT 12/M03 A3003 RMK A01 T01211032  RH  034%=      5-min Rain = 0
KST3 202139Z 19009KT 12/M03 A3003 RMK A01 T01201033  RH  034%=      5-min Rain = 0
KST3 202140Z 18009KT 12/M03 A3003 RMK A01 T01201033  RH  034%=      5-min Rain = 0
KST3 202141Z 18007KT 12/M03 A3003 RMK A01 T01201033  RH  034%=      5-min Rain = 0
KST3 202142Z 18008KT 12/M03 A3003 RMK A01 T01221030  RH  035%=      5-min Rain = 0
KST3 202143Z 19009KT 12/M03 A3003 RMK A01 T01241030  RH  034%=      5-min Rain = 0
KST3 202144Z 19010KT 13/M03 A3003 RMK A01 T01251030  RH  034%=      5-min Rain = 0
KST3 202145Z 19009KT 13/M03 A3003 RMK A01 T01251031  RH  034%=      5-min Rain = 0
KST3 202146Z 19010KT 13/M03 A3003 RMK A01 T01251030  RH  034%=      5-min Rain = 0
KST3 202147Z 19010KT 12/M03 A3003 RMK A01 T01241032  RH  034%=      5-min Rain = 0
KST3 202148Z 19010KT 12/M03 A3003 RMK A01 T01241031  RH  034%=      5-min Rain = 0
KST3 202149Z 19011KT 12/M03 A3003 RMK A01 T01241031  RH  034%=      5-min Rain = 0
KST3 202150Z 17010KT 12/M03 A3003 RMK A01 T01241030  RH  034%=      5-min Rain = 0
KST3 202151Z 17009KT 12/M03 A3003 RMK A01 T01231031  RH  034%=      5-min Rain = 0
KST3 202152Z 18008KT 12/M03 A3003 RMK A01 T01231031  RH  034%=      5-min Rain = 0
KST3 202153Z 20009KT 12/M03 A3003 RMK A01 T01241031  RH  034%=      5-min Rain = 0
KST3 202154Z 20010KT 12/M03 A3003 RMK A01 T01241032  RH  034%=      5-min Rain = 0
KST3 202155Z 19010KT 12/M03 A3003 RMK A01 T01241033  RH  033%=      5-min Rain = 0
KST3 202156Z 18011KT 12/M04 A3003 RMK A01 T01231036  RH  033%=      5-min Rain = 0
KST3 202157Z 18010KT 12/M04 A3003 RMK A01 T01221037  RH  033%=      5-min Rain = 0
KST3 202158Z 19009KT 12/M04 A3003 RMK A01 T01221038  RH  032%=      5-min Rain = 0
KST3 202159Z 19008KT 12/M04 A3003 RMK A01 T01221038  RH  032%=      5-min Rain = 0
KST3 202200Z 18008KT 12/M04 A3003 RMK A01 T01221038  RH  033%=      5-min Rain = 0
KST3 202201Z 18008KT 12/M04 A3003 RMK A01 T01221038  RH  032%=      5-min Rain = 0
KST3 202202Z 20008KT 12/M04 A3003 RMK A01 T01221038  RH  033%=      5-min Rain = 0
KST3 202203Z 20009KT 12/M04 A3003 RMK A01 T01221038  RH  033%=      5-min Rain = 0
KST3 202204Z 21008KT 12/M04 A3003 RMK A01 T01221038  RH  033%=      5-min Rain = 0
KST3 202205Z 21009KT 12/M04 A3003 RMK A01 T01221037  RH  033%=      5-min Rain = 0
KST3 202206Z 20009KT 12/M04 A3003 RMK A01 T01221038  RH  033%=      5-min Rain = 0
KST3 202207Z 19007KT 12/M04 A3003 RMK A01 T01221038  RH  033%=      5-min Rain = 0
KST3 202208Z 19007KT 12/M04 A3003 RMK A01 T01221037  RH  033%=      5-min Rain = 0
KST3 202209Z 19008KT 12/M04 A3003 RMK A01 T01221037  RH  033%=      5-min Rain = 0
KST3 202210Z 19008KT 12/M04 A3003 RMK A01 T01231036  RH  033%=      5-min Rain = 0
KST3 202211Z 18008KT 12/M04 A3003 RMK A01 T01231036  RH  033%=      5-min Rain = 0
KST3 202212Z 18008KT 12/M04 A3003 RMK A01 T01231036  RH  033%=      5-min Rain = 0
KST3 202213Z 18006KT 12/M03 A3003 RMK A01 T01241034  RH  033%=      5-min Rain = 0
KST3 202214Z 20006KT 13/M03 A3003 RMK A01 T01261032  RH  033%=      5-min Rain = 0
KST3 202215Z 19007KT 13/M03 A3003 RMK A01 T01281032  RH  033%=      5-min Rain = 0
KST3 202216Z 19008KT 13/M03 A3003 RMK A01 T01281034  RH  032%=      5-min Rain = 0
KST3 202217Z 19007KT 13/M03 A3003 RMK A01 T01281033  RH  032%=      5-min Rain = 0
KST3 202218Z 19007KT 13/M03 A3003 RMK A01 T01271033  RH  033%=      5-min Rain = 0
KST3 202219Z 19008KT 13/M03 A3003 RMK A01 T01271033  RH  033%=      5-min Rain = 0
KST3 202220Z 19008KT 13/M03 A3003 RMK A01 T01261034  RH  033%=      5-min Rain = 0
KST3 202221Z 17007KT 13/M03 A3003 RMK A01 T01251033  RH  033%=      5-min Rain = 0
KST3 202222Z 17007KT 13/M03 A3003 RMK A01 T01251032  RH  034%=      5-min Rain = 0
KST3 202223Z 16006KT 13/M03 A3003 RMK A01 T01251032  RH  034%=      5-min Rain = 0
KST3 202224Z 17006KT 12/M03 A3003 RMK A01 T01241032  RH  034%=      5-min Rain = 0
KST3 202225Z 18007KT 12/M03 A3002 RMK A01 T01241031  RH  034%=      5-min Rain = 0
KST3 202226Z 18008KT 12/M03 A3002 RMK A01 T01241030  RH  034%=      5-min Rain = 0
KST3 202227Z 18007KT 12/M03 A3002 RMK A01 T01241031  RH  034%=      5-min Rain = 0
KST3 202228Z 16008KT 12/M03 A3002 RMK A01 T01241030  RH  034%=      5-min Rain = 0
KST3 202229Z 16007KT 12/M03 A3002 RMK A01 T01241031  RH  034%=      5-min Rain = 0
KST3 202230Z 16007KT 12/M03 A3002 RMK A01 T01241030  RH  034%=      5-min Rain = 0
KST3 202231Z 17006KT 12/M03 A3002 RMK A01 T01241030  RH  034%=      5-min Rain = 0
KST3 202232Z 17007KT 12/M03 A3002 RMK A01 T01241030  RH  034%=      5-min Rain = 0
KST3 202233Z 18007KT 12/M03 A3002 RMK A01 T01241030  RH  034%=      5-min Rain = 0
KST3 202234Z 18008KT 13/M03 A3002 RMK A01 T01251029  RH  034%=      5-min Rain = 0
KST3 202235Z 17006KT 13/M03 A3002 RMK A01 T01251028  RH  034%=      5-min Rain = 0
KST3 202236Z 18008KT 13/M03 A3002 RMK A01 T01261028  RH  034%=      5-min Rain = 0
KST3 202237Z 18007KT 13/M03 A3002 RMK A01 T01271028  RH  034%=      5-min Rain = 0
KST3 202238Z 18007KT 13/M03 A3002 RMK A01 T01271027  RH  034%=      5-min Rain = 0
KST3 202239Z 18008KT 13/M03 A3002 RMK A01 T01281027  RH  034%=      5-min Rain = 0
KST3 202240Z 18008KT 13/M03 A3002 RMK A01 T01281028  RH  034%=      5-min Rain = 0
KST3 202241Z 17008KT 13/M03 A3002 RMK A01 T01281028  RH  034%=      5-min Rain = 0
KST3 202242Z 17007KT 13/M03 A3002 RMK A01 T01271028  RH  034%=      5-min Rain = 0
KST3 202243Z 17007KT 13/M03 A3002 RMK A01 T01261027  RH  034%=      5-min Rain = 0
KST3 202244Z 16007KT 13/M03 A3002 RMK A01 T01261027  RH  034%=      5-min Rain = 0
KST3 202245Z 15006KT 13/M03 A3002 RMK A01 T01261026  RH  035%=      5-min Rain = 0
KST3 202246Z 16007KT 13/M03 A3002 RMK A01 T01261025  RH  035%=      5-min Rain = 0
KST3 202247Z 16008KT 13/M03 A3002 RMK A01 T01261026  RH  035%=      5-min Rain = 0
KST3 202248Z 17007KT 13/M03 A3002 RMK A01 T01251026  RH  035%=      5-min Rain = 0
KST3 202249Z 17006KT 13/M03 A3002 RMK A01 T01261026  RH  035%=      5-min Rain = 0
KST3 202250Z 16008KT 13/M03 A3002 RMK A01 T01261025  RH  035%=      5-min Rain = 0
KST3 202251Z 16008KT 13/M03 A3002 RMK A01 T01261026  RH  035%=      5-min Rain = 0
KST3 202252Z 17006KT 13/M03 A3002 RMK A01 T01261026  RH  035%=      5-min Rain = 0
KST3 202253Z 17007KT 13/M03 A3002 RMK A01 T01261026  RH  035%=      5-min Rain = 0
KST3 202254Z 17006KT 13/M03 A3002 RMK A01 T01261026  RH  035%=      5-min Rain = 0
KST3 202255Z 17006KT 13/M03 A3002 RMK A01 T01261025  RH  035%=      5-min Rain = 0
KST3 202256Z 17007KT 13/M03 A3002 RMK A01 T01261025  RH  035%=      5-min Rain = 0
KST3 202257Z 17006KT 13/M03 A3002 RMK A01 T01251026  RH  035%=      5-min Rain = 0
KST3 202258Z 16007KT 13/M03 A3002 RMK A01 T01251025  RH  035%=      5-min Rain = 0
KST3 202259Z 17005KT 13/M03 A3002 RMK A01 T01251025  RH  035%=      5-min Rain = 0
KST3 202300Z 18005KT 13/M02 A3001 RMK A01 T01251024  RH  035%=      5-min Rain = 0
KST3 202301Z 18006KT 13/M03 A3001 RMK A01 T01251025  RH  035%=      5-min Rain = 0
KST3 202302Z 17007KT 13/M03 A3001 RMK A01 T01251026  RH  035%=      5-min Rain = 0
KST3 202303Z 18005KT 13/M03 A3001 RMK A01 T01251025  RH  035%=      5-min Rain = 0
KST3 202304Z 18006KT 13/M03 A3001 RMK A01 T01251025  RH  035%=      5-min Rain = 0
KST3 202305Z 18006KT 12/M03 A3001 RMK A01 T01241025  RH  035%=      5-min Rain = 0
KST3 202306Z 18005KT 12/M03 A3001 RMK A01 T01241025  RH  035%=      5-min Rain = 0
KST3 202307Z 18005KT 12/M03 A3001 RMK A01 T01241025  RH  035%=      5-min Rain = 0
KST3 202308Z 18005KT 12/M02 A3001 RMK A01 T01241024  RH  036%=      5-min Rain = 0
KST3 202309Z 18004KT 12/M03 A3001 RMK A01 T01241025  RH  036%=      5-min Rain = 0
KST3 202310Z 17004KT 12/M02 A3001 RMK A01 T01241024  RH  036%=      5-min Rain = 0
KST3 202311Z 17005KT 12/M03 A3001 RMK A01 T01231025  RH  036%=      5-min Rain = 0
KST3 202312Z 17005KT 12/M03 A3001 RMK A01 T01231025  RH  036%=      5-min Rain = 0
KST3 202313Z 17004KT 12/M02 A3001 RMK A01 T01221024  RH  036%=      5-min Rain = 0
KST3 202314Z 17004KT 12/M02 A3001 RMK A01 T01221024  RH  036%=      5-min Rain = 0
KST3 202315Z 17004KT 12/M02 A3001 RMK A01 T01211024  RH  036%=      5-min Rain = 0
KST3 202316Z 17004KT 12/M02 A3001 RMK A01 T01211024  RH  036%=      5-min Rain = 0
KST3 202317Z 17004KT 12/M02 A3001 RMK A01 T01201024  RH  036%=      5-min Rain = 0
KST3 202318Z 17004KT 12/M02 A3001 RMK A01 T01201024  RH  036%=      5-min Rain = 0
KST3 202319Z 17004KT 12/M02 A3001 RMK A01 T01191024  RH  037%=      5-min Rain = 0
KST3 202320Z 17004KT 12/M02 A3001 RMK A01 T01191024  RH  037%=      5-min Rain = 0
KST3 202321Z 17004KT 12/M02 A3001 RMK A01 T01191024  RH  037%=      5-min Rain = 0
KST3 202322Z 17004KT 12/M02 A3001 RMK A01 T01191024  RH  037%=      5-min Rain = 0
KST3 202323Z 17004KT 12/M02 A3001 RMK A01 T01181024  RH  037%=      5-min Rain = 0
KST3 202324Z 17004KT 12/M02 A3001 RMK A01 T01181024  RH  037%=      5-min Rain = 0
KST3 202325Z 17004KT 12/M02 A3001 RMK A01 T01171024  RH  037%=      5-min Rain = 0
KST3 202326Z 17005KT 12/M02 A3001 RMK A01 T01161024  RH  037%=      5-min Rain = 0
KST3 202327Z 17005KT 12/M03 A3001 RMK A01 T01151025  RH  038%=      5-min Rain = 0
KST3 202328Z 17005KT 12/M03 A3001 RMK A01 T01151025  RH  038%=      5-min Rain = 0
KST3 202329Z 17004KT 12/M03 A3001 RMK A01 T01151025  RH  038%=      5-min Rain = 0
KST3 202330Z 17004KT 12/M02 A3001 RMK A01 T01151024  RH  038%=      5-min Rain = 0
KST3 202331Z 17004KT 12/M02 A3001 RMK A01 T01151024  RH  038%=      5-min Rain = 0
KST3 202332Z 17004KT 11/M03 A3001 RMK A01 T01141025  RH  038%=      5-min Rain = 0
KST3 202333Z 17004KT 11/M03 A3001 RMK A01 T01141025  RH  038%=      5-min Rain = 0
KST3 202334Z 18004KT 11/M03 A3001 RMK A01 T01141025  RH  038%=      5-min Rain = 0
KST3 202335Z 18004KT 11/M03 A3001 RMK A01 T01141025  RH  038%=      5-min Rain = 0
KST3 202336Z 18004KT 11/M03 A3001 RMK A01 T01141025  RH  038%=      5-min Rain = 0
KST3 202337Z 18004KT 11/M03 A3001 RMK A01 T01141025  RH  038%=      5-min Rain = 0
KST3 202338Z 18004KT 11/M03 A3001 RMK A01 T01141025  RH  038%=      5-min Rain = 0
KST3 202339Z 18004KT 11/M03 A3001 RMK A01 T01141026  RH  037%=      5-min Rain = 0
KST3 202340Z 18004KT 11/M03 A3001 RMK A01 T01141026  RH  037%=      5-min Rain = 0
KST3 202341Z 18004KT 11/M03 A3001 RMK A01 T01141026  RH  037%=      5-min Rain = 0
KST3 202342Z 18004KT 11/M03 A3001 RMK A01 T01131027  RH  037%=      5-min Rain = 0
KST3 202343Z 18004KT 11/M03 A3001 RMK A01 T01131027  RH  037%=      5-min Rain = 0
KST3 202344Z 18003KT 11/M03 A3001 RMK A01 T01121027  RH  038%=      5-min Rain = 0
KST3 202345Z 18003KT 11/M03 A3001 RMK A01 T01121028  RH  038%=      5-min Rain = 0
KST3 202346Z 18003KT 11/M03 A3001 RMK A01 T01121027  RH  038%=      5-min Rain = 0
KST3 202347Z 18003KT 11/M03 A3001 RMK A01 T01121027  RH  038%=      5-min Rain = 0
KST3 202348Z 18003KT 11/M03 A3001 RMK A01 T01121027  RH  038%=      5-min Rain = 0
KST3 202349Z 18003KT 11/M03 A3001 RMK A01 T01121028  RH  038%=      5-min Rain = 0
KST3 202350Z 18003KT 11/M03 A3001 RMK A01 T01111028  RH  038%=      5-min Rain = 0
KST3 202351Z 19003KT 11/M03 A3001 RMK A01 T01121028  RH  038%=      5-min Rain = 0
KST3 202352Z 18003KT 11/M03 A3001 RMK A01 T01121028  RH  038%=      5-min Rain = 0
KST3 202353Z 18004KT 11/M03 A3001 RMK A01 T01121028  RH  038%=      5-min Rain = 0
KST3 202354Z 18004KT 11/M03 A3001 RMK A01 T01121027  RH  038%=      5-min Rain = 0
KST3 202355Z 17004KT 11/M03 A3001 RMK A01 T01111028  RH  038%=      5-min Rain = 0
KST3 202356Z 17004KT 11/M03 A3001 RMK A01 T01111028  RH  038%=      5-min Rain = 0
KST3 202357Z 16003KT 11/M03 A3001 RMK A01 T01091029  RH  038%=      5-min Rain = 0
KST3 202358Z 16003KT 11/M03 A3001 RMK A01 T01071029  RH  038%=      5-min Rain = 0
KST3 202359Z 16003KT 11/M03 A3001 RMK A01 T01071028  RH  039%=      5-min Rain = 0
KST3 210000Z 16003KT 11/M03 A3001 RMK A01 T01081026  RH  039%=      5-min Rain = 0
KST3 210001Z 16004KT 11/M03 A3001 RMK A01 T01091025  RH  039%=      5-min Rain = 0
KST3 210002Z 17004KT 11/M03 A3001 RMK A01 T01101025  RH  039%=      5-min Rain = 0
KST3 210003Z 17004KT 11/M03 A3001 RMK A01 T01111025  RH  039%=      5-min Rain = 0
KST3 210004Z 17004KT 11/M03 A3001 RMK A01 T01101026  RH  038%=      5-min Rain = 0
KST3 210005Z 17004KT 11/M03 A3001 RMK A01 T01101026  RH  038%=      5-min Rain = 0
KST3 210006Z 16005KT 11/M03 A3001 RMK A01 T01101026  RH  038%=      5-min Rain = 0
KST3 210007Z 16004KT 11/M03 A3001 RMK A01 T01101026  RH  039%=      5-min Rain = 0
KST3 210008Z 16004KT 11/M03 A3001 RMK A01 T01081027  RH  039%=      5-min Rain = 0
KST3 210009Z 16004KT 11/M03 A3001 RMK A01 T01081026  RH  039%=      5-min Rain = 0
KST3 210010Z 15005KT 11/M03 A3001 RMK A01 T01071026  RH  039%=      5-min Rain = 0
KST3 210011Z 15005KT 11/M03 A3001 RMK A01 T01061027  RH  039%=      5-min Rain = 0
KST3 210012Z 16005KT 11/M03 A3001 RMK A01 T01061027  RH  039%=      5-min Rain = 0
KST3 210013Z 15005KT 11/M03 A3001 RMK A01 T01051027  RH  040%=      5-min Rain = 0
KST3 210014Z 15005KT 11/M03 A3001 RMK A01 T01051027  RH  040%=      5-min Rain = 0
KST3 210015Z 14005KT 10/M03 A3001 RMK A01 T01041027  RH  040%=      5-min Rain = 0
KST3 210016Z 14005KT 10/M03 A3001 RMK A01 T01031028  RH  040%=      5-min Rain = 0
KST3 210017Z 14006KT 10/M03 A3001 RMK A01 T01021027  RH  040%=      5-min Rain = 0
KST3 210018Z 14006KT 10/M03 A30 RMK A01 T01021027  RH  040%=      5-min Rain = 0
KST3 210019Z 14005KT 10/M03 A30 RMK A01 T01021027  RH  041%=      5-min Rain = 0
KST3 210020Z 14005KT 10/M03 A30 RMK A01 T01011027  RH  041%=      5-min Rain = 0
KST3 210021Z 15006KT 10/M03 A30 RMK A01 T01001027  RH  041%=      5-min Rain = 0
KST3 210022Z 15006KT 10/M03 A30 RMK A01 T00991027  RH  041%=      5-min Rain = 0
KST3 210023Z 15006KT 10/M03 A30 RMK A01 T00971027  RH  042%=      5-min Rain = 0
KST3 210024Z 15006KT 10/M03 A30 RMK A01 T00961027  RH  042%=      5-min Rain = 0
KST3 210025Z 15007KT 10/M03 A30 RMK A01 T00951027  RH  042%=      5-min Rain = 0
KST3 210026Z 15006KT 09/M03 A30 RMK A01 T00941027  RH  043%=      5-min Rain = 0
KST3 210027Z 15006KT 09/M03 A30 RMK A01 T00941026  RH  043%=      5-min Rain = 0
KST3 210028Z 15007KT 09/M03 A30 RMK A01 T00941026  RH  043%=      5-min Rain = 0
KST3 210029Z 15007KT 09/M03 A30 RMK A01 T00941025  RH  043%=      5-min Rain = 0
KST3 210030Z 15007KT 09/M03 A30 RMK A01 T00941025  RH  043%=      5-min Rain = 0
KST3 210031Z 15007KT 09/M03 A30 RMK A01 T00931026  RH  043%=      5-min Rain = 0
KST3 210032Z 15007KT 09/M03 A30 RMK A01 T00921026  RH  044%=      5-min Rain = 0
KST3 210033Z 15007KT 09/M03 A30 RMK A01 T00911026  RH  044%=      5-min Rain = 0
KST3 210034Z 16007KT 09/M03 A30 RMK A01 T00901026  RH  044%=      5-min Rain = 0
KST3 210035Z 16008KT 09/M03 A30 RMK A01 T00901025  RH  044%=      5-min Rain = 0
KST3 210036Z 16008KT 09/M03 A30 RMK A01 T00901025  RH  044%=      5-min Rain = 0
KST3 210037Z 16008KT 09/M02 A30 RMK A01 T00911024  RH  045%=      5-min Rain = 0
KST3 210038Z 16009KT 09/M02 A30 RMK A01 T00911024  RH  045%=      5-min Rain = 0
KST3 210039Z 16009KT 09/M02 A30 RMK A01 T00911023  RH  045%=      5-min Rain = 0
KST3 210040Z 16008KT 09/M02 A30 RMK A01 T00921023  RH  044%=      5-min Rain = 0
KST3 210041Z 16008KT 09/M02 A30 RMK A01 T00911023  RH  045%=      5-min Rain = 0
KST3 210042Z 16008KT 09/M02 A30 RMK A01 T00901023  RH  045%=      5-min Rain = 0
KST3 210043Z 16008KT 09/M02 A30 RMK A01 T00901023  RH  045%=      5-min Rain = 0
KST3 210044Z 16008KT 09/M02 A30 RMK A01 T00891023  RH  045%=      5-min Rain = 0
KST3 210045Z 16008KT 09/M02 A30 RMK A01 T00891023  RH  045%=      5-min Rain = 0
KST3 210046Z 16008KT 09/M02 A30 RMK A01 T00891022  RH  046%=      5-min Rain = 0
KST3 210047Z 16009KT 09/M02 A30 RMK A01 T00891022  RH  046%=      5-min Rain = 0
KST3 210048Z 16010KT 09/M02 A30 RMK A01 T00881022  RH  046%=      5-min Rain = 0
KST3 210049Z 16009KT 09/M02 A30 RMK A01 T00891022  RH  046%=      5-min Rain = 0
KST3 210050Z 16008KT 09/M02 A30 RMK A01 T00901022  RH  045%=      5-min Rain = 0
KST3 210051Z 16009KT 09/M02 A30 RMK A01 T00901022  RH  045%=      5-min Rain = 0
KST3 210052Z 17009KT 09/M02 A30 RMK A01 T00901022  RH  045%=      5-min Rain = 0
KST3 210053Z 17010KT 09/M02 A30 RMK A01 T00901022  RH  045%=      5-min Rain = 0
KST3 210054Z 17010KT 09/M02 A30 RMK A01 T00901022  RH  045%=      5-min Rain = 0
KST3 210055Z 17009KT 09/M02 A30 RMK A01 T00911022  RH  045%=      5-min Rain = 0
KST3 210056Z 17010KT 09/M02 A30 RMK A01 T00911022  RH  045%=      5-min Rain = 0
KST3 210057Z 17010KT 09/M02 A30 RMK A01 T00911022  RH  045%=      5-min Rain = 0
KST3 210058Z 17009KT 09/M02 A30 RMK A01 T00901022  RH  045%=      5-min Rain = 0
KST3 210059Z 17009KT 09/M02 A30 RMK A01 T00911021  RH  045%=      5-min Rain = 0
KST3 210100Z 17009KT 09/M02 A30 RMK A01 T00911022  RH  045%=      5-min Rain = 0
KST3 210101Z 17010KT 09/M02 A30 RMK A01 T00911022  RH  045%=      5-min Rain = 0
KST3 210102Z 17009KT 09/M02 A30 RMK A01 T00921021  RH  045%=      5-min Rain = 0
KST3 210103Z 17009KT 09/M02 A30 RMK A01 T00921022  RH  045%=      5-min Rain = 0
KST3 210104Z 17009KT 09/M02 A30 RMK A01 T00921022  RH  045%=      5-min Rain = 0
KST3 210105Z 17009KT 09/M02 A30 RMK A01 T00911022  RH  045%=      5-min Rain = 0
KST3 210106Z 17009KT 09/M02 A30 RMK A01 T00911022  RH  045%=      5-min Rain = 0
KST3 210107Z 17009KT 09/M02 A30 RMK A01 T00911022  RH  045%=      5-min Rain = 0
KST3 210108Z 17009KT 09/M02 A30 RMK A01 T00911022  RH  045%=      5-min Rain = 0
KST3 210109Z 17009KT 09/M02 A30 RMK A01 T00901022  RH  045%=      5-min Rain = 0
KST3 210110Z 17009KT 09/M02 A30 RMK A01 T00891023  RH  045%=      5-min Rain = 0
KST3 210111Z 16008KT 09/M02 A30 RMK A01 T00891023  RH  045%=      5-min Rain = 0
KST3 210112Z 16009KT 09/M02 A30 RMK A01 T00881023  RH  046%=      5-min Rain = 0
KST3 210113Z 17008KT 09/M02 A30 RMK A01 T00871023  RH  046%=      5-min Rain = 0
KST3 210114Z 17009KT 09/M02 A30 RMK A01 T00871023  RH  046%=      5-min Rain = 0
KST3 210115Z 16009KT 09/M02 A30 RMK A01 T00871023  RH  046%=      5-min Rain = 0
KST3 210116Z 16008KT 09/M02 A30 RMK A01 T00871023  RH  046%=      5-min Rain = 0
KST3 210117Z 16007KT 09/M02 A30 RMK A01 T00871023  RH  046%=      5-min Rain = 0
KST3 210118Z 15007KT 09/M02 A30 RMK A01 T00851023  RH  046%=      5-min Rain = 0
KST3 210119Z 16008KT 08/M02 A30 RMK A01 T00841024  RH  047%=      5-min Rain = 0
KST3 210120Z 16009KT 08/M02 A30 RMK A01 T00841023  RH  047%=      5-min Rain = 0
KST3 210121Z 16009KT 08/M02 A30 RMK A01 T00841024  RH  047%=      5-min Rain = 0
KST3 210122Z 16010KT 09/M02 A30 RMK A01 T00851023  RH  047%=      5-min Rain = 0
KST3 210123Z 16010KT 09/M02 A30 RMK A01 T00851023  RH  047%=      5-min Rain = 0
KST3 210124Z 16008KT 08/M02 A30 RMK A01 T00841024  RH  047%=      5-min Rain = 0
KST3 210125Z 16009KT 08/M02 A30 RMK A01 T00831024  RH  047%=      5-min Rain = 0
KST3 210126Z 16009KT 08/M02 A30 RMK A01 T00821024  RH  047%=      5-min Rain = 0
KST3 210127Z 16010KT 08/M02 A30 RMK A01 T00821024  RH  047%=      5-min Rain = 0
KST3 210128Z 16010KT 08/M02 A30 RMK A01 T00821024  RH  047%=      5-min Rain = 0
KST3 210129Z 16009KT 08/M02 A30 RMK A01 T00821024  RH  047%=      5-min Rain = 0
KST3 210130Z 16009KT 08/M02 A30 RMK A01 T00811024  RH  047%=      5-min Rain = 0
KST3 210131Z 16009KT 08/M03 A30 RMK A01 T00801025  RH  048%=      5-min Rain = 0
KST3 210132Z 16009KT 08/M03 A30 RMK A01 T00791025  RH  048%=      5-min Rain = 0
KST3 210133Z 16009KT 08/M02 A30 RMK A01 T00791024  RH  048%=      5-min Rain = 0
KST3 210134Z 16009KT 08/M03 A30 RMK A01 T00781025  RH  048%=      5-min Rain = 0
KST3 210135Z 16009KT 08/M03 A30 RMK A01 T00771025  RH  048%=      5-min Rain = 0
KST3 210136Z 16009KT 08/M03 A30 RMK A01 T00761025  RH  049%=      5-min Rain = 0
KST3 210137Z 16009KT 08/M03 A30 RMK A01 T00751025  RH  049%=      5-min Rain = 0
KST3 210138Z 16009KT 08/M02 A30 RMK A01 T00751024  RH  049%=      5-min Rain = 0
KST3 210139Z 16009KT 08/M03 A30 RMK A01 T00751025  RH  049%=      5-min Rain = 0
KST3 210140Z 16009KT 08/M02 A30 RMK A01 T00751024  RH  049%=      5-min Rain = 0
KST3 210141Z 16009KT 07/M03 A30 RMK A01 T00741025  RH  049%=      5-min Rain = 0
KST3 210142Z 16009KT 07/M03 A30 RMK A01 T00741025  RH  049%=      5-min Rain = 0
KST3 210143Z 16008KT 07/M03 A30 RMK A01 T00741025  RH  050%=      5-min Rain = 0
KST3 210144Z 16009KT 07/M02 A30 RMK A01 T00741024  RH  050%=      5-min Rain = 0
KST3 210145Z 16009KT 07/M03 A30 RMK A01 T00741025  RH  050%=      5-min Rain = 0
KST3 210146Z 16009KT 07/M03 A30 RMK A01 T00731025  RH  050%=      5-min Rain = 0
KST3 210147Z 16010KT 07/M03 A30 RMK A01 T00721025  RH  050%=      5-min Rain = 0
KST3 210148Z 16011KT 07/M03 A30 RMK A01 T00721025  RH  050%=      5-min Rain = 0
KST3 210149Z 16009KT 07/M03 A30 RMK A01 T00731025  RH  050%=      5-min Rain = 0
KST3 210150Z 16010KT 07/M03 A30 RMK A01 T00731026  RH  050%=      5-min Rain = 0
KST3 210151Z 15010KT 07/M03 A30 RMK A01 T00721026  RH  050%=      5-min Rain = 0
KST3 210152Z 16009KT 07/M03 A30 RMK A01 T00721026  RH  050%=      5-min Rain = 0
KST3 210153Z 16009KT 07/M03 A30 RMK A01 T00711027  RH  050%=      5-min Rain = 0
KST3 210154Z 16010KT 07/M03 A2999 RMK A01 T00701026  RH  050%=      5-min Rain = 0
KST3 210155Z 16010KT 07/M03 A2999 RMK A01 T00701027  RH  050%=      5-min Rain = 0
KST3 210156Z 16011KT 07/M03 A2999 RMK A01 T00701027  RH  050%=      5-min Rain = 0
KST3 210157Z 16009KT 07/M03 A2999 RMK A01 T00701027  RH  050%=      5-min Rain = 0
KST3 210158Z 16010KT 07/M03 A2999 RMK A01 T00691027  RH  050%=      5-min Rain = 0
KST3 210159Z 15010KT 07/M03 A2999 RMK A01 T00691028  RH  050%=      5-min Rain = 0
KST3 210200Z 16010KT 07/M03 A2999 RMK A01 T00691028  RH  050%=      5-min Rain = 0
KST3 210201Z 15010KT 07/M03 A2999 RMK A01 T00691028  RH  050%=      5-min Rain = 0
KST3 210202Z 16010KT 07/M03 A2999 RMK A01 T00691028  RH  050%=      5-min Rain = 0
KST3 210203Z 16009KT 07/M03 A2999 RMK A01 T00681028  RH  050%=      5-min Rain = 0
KST3 210204Z 16010KT 07/M03 A2999 RMK A01 T00681028  RH  050%=      5-min Rain = 0
KST3 210205Z 16009KT 07/M03 A2999 RMK A01 T00671028  RH  050%=      5-min Rain = 0
KST3 210206Z 16008KT 07/M03 A2999 RMK A01 T00671028  RH  051%=      5-min Rain = 0
KST3 210207Z 15008KT 07/M03 A2999 RMK A01 T00671028  RH  051%=      5-min Rain = 0
KST3 210208Z 16007KT 07/M03 A2999 RMK A01 T00661029  RH  051%=      5-min Rain = 0
KST3 210209Z 15008KT 07/M03 A2999 RMK A01 T00661029  RH  051%=      5-min Rain = 0
KST3 210210Z 16009KT 07/M03 A2999 RMK A01 T00661029  RH  051%=      5-min Rain = 0
KST3 210211Z 16008KT 07/M03 A2999 RMK A01 T00651029  RH  051%=      5-min Rain = 0
KST3 210212Z 16007KT 07/M03 A2999 RMK A01 T00651029  RH  051%=      5-min Rain = 0
KST3 210213Z 15007KT 07/M03 A2999 RMK A01 T00651029  RH  051%=      5-min Rain = 0
KST3 210214Z 16009KT 06/M03 A2999 RMK A01 T00641029  RH  051%=      5-min Rain = 0
KST3 210215Z 15010KT 06/M03 A2999 RMK A01 T00641029  RH  051%=      5-min Rain = 0
KST3 210216Z 16010KT 06/M03 A2999 RMK A01 T00641029  RH  051%=      5-min Rain = 0
KST3 210217Z 16009KT 06/M03 A2999 RMK A01 T00641029  RH  051%=      5-min Rain = 0
KST3 210218Z 16009KT 06/M03 A2999 RMK A01 T00641029  RH  051%=      5-min Rain = 0
KST3 210219Z 16009KT 07/M03 A2999 RMK A01 T00651029  RH  051%=      5-min Rain = 0
KST3 210220Z 16008KT 06/M03 A2999 RMK A01 T00641029  RH  051%=      5-min Rain = 0
KST3 210221Z 16009KT 06/M03 A2999 RMK A01 T00631030  RH  051%=      5-min Rain = 0
KST3 210222Z 15009KT 06/M03 A2999 RMK A01 T00631029  RH  052%=      5-min Rain = 0
KST3 210223Z 16009KT 06/M03 A2999 RMK A01 T00631029  RH  052%=      5-min Rain = 0
KST3 210224Z 16008KT 06/M03 A2999 RMK A01 T00631030  RH  052%=      5-min Rain = 0
KST3 210225Z 16008KT 06/M03 A2999 RMK A01 T00631029  RH  052%=      5-min Rain = 0
KST3 210226Z 16010KT 06/M03 A2999 RMK A01 T00621030  RH  052%=      5-min Rain = 0
KST3 210227Z 15010KT 06/M03 A2999 RMK A01 T00621030  RH  052%=      5-min Rain = 0
KST3 210228Z 15010KT 06/M03 A2999 RMK A01 T00621029  RH  052%=      5-min Rain = 0
KST3 210229Z 16010KT 06/M03 A2999 RMK A01 T00631030  RH  052%=      5-min Rain = 0
KST3 210230Z 15010KT 06/M03 A2999 RMK A01 T00631030  RH  052%=      5-min Rain = 0
KST3 210231Z 15010KT 06/M03 A2999 RMK A01 T00631030  RH  052%=      5-min Rain = 0
KST3 210232Z 15009KT 06/M03 A2999 RMK A01 T00621030  RH  052%=      5-min Rain = 0
KST3 210233Z 15009KT 06/M03 A2999 RMK A01 T00631030  RH  052%=      5-min Rain = 0
KST3 210234Z 16009KT 06/M03 A2999 RMK A01 T00631030  RH  052%=      5-min Rain = 0
KST3 210235Z 16009KT 06/M03 A2999 RMK A01 T00621030  RH  052%=      5-min Rain = 0
KST3 210236Z 16009KT 06/M03 A2999 RMK A01 T00611030  RH  052%=      5-min Rain = 0
KST3 210237Z 15009KT 06/M03 A2999 RMK A01 T00611030  RH  052%=      5-min Rain = 0
KST3 210238Z 16008KT 06/M03 A2999 RMK A01 T00611030  RH  052%=      5-min Rain = 0
KST3 210239Z 15008KT 06/M03 A2999 RMK A01 T00611030  RH  052%=      5-min Rain = 0
KST3 210240Z 15008KT 06/M03 A2999 RMK A01 T00601030  RH  052%=      5-min Rain = 0
KST3 210241Z 16008KT 06/M03 A2999 RMK A01 T00601030  RH  052%=      5-min Rain = 0
KST3 210242Z 16008KT 06/M03 A2998 RMK A01 T00591030  RH  053%=      5-min Rain = 0
KST3 210243Z 16008KT 06/M03 A2999 RMK A01 T00591030  RH  053%=      5-min Rain = 0
KST3 210244Z 16009KT 06/M03 A2998 RMK A01 T00591030  RH  053%=      5-min Rain = 0
KST3 210245Z 16009KT 06/M03 A2998 RMK A01 T00591030  RH  053%=      5-min Rain = 0
KST3 210246Z 16008KT 06/M03 A2998 RMK A01 T00581030  RH  053%=      5-min Rain = 0
KST3 210247Z 16009KT 06/M03 A2998 RMK A01 T00591030  RH  053%=      5-min Rain = 0
KST3 210248Z 16008KT 06/M03 A2998 RMK A01 T00591030  RH  053%=      5-min Rain = 0
KST3 210249Z 16008KT 06/M03 A2998 RMK A01 T00591030  RH  053%=      5-min Rain = 0
KST3 210250Z 16008KT 06/M03 A2999 RMK A01 T00591030  RH  053%=      5-min Rain = 0
KST3 210251Z 16007KT 06/M03 A2998 RMK A01 T00581030  RH  053%=      5-min Rain = 0
KST3 210252Z 16007KT 06/M03 A2998 RMK A01 T00581030  RH  053%=      5-min Rain = 0
KST3 210253Z 16008KT 06/M03 A2998 RMK A01 T00581030  RH  053%=      5-min Rain = 0
KST3 210254Z 15008KT 06/M03 A2998 RMK A01 T00571030  RH  053%=      5-min Rain = 0
KST3 210255Z 15007KT 06/M03 A2998 RMK A01 T00571030  RH  053%=      5-min Rain = 0
KST3 210256Z 15007KT 06/M03 A2998 RMK A01 T00571030  RH  053%=      5-min Rain = 0
KST3 210257Z 15007KT 06/M03 A2998 RMK A01 T00571031  RH  053%=      5-min Rain = 0
KST3 210258Z 15008KT 06/M03 A2998 RMK A01 T00561031  RH  053%=      5-min Rain = 0
KST3 210259Z 15006KT 06/M03 A2998 RMK A01 T00561031  RH  054%=      5-min Rain = 0
KST3 210300Z 15008KT 06/M03 A2998 RMK A01 T00561031  RH  054%=      5-min Rain = 0
KST3 210301Z 15007KT 06/M03 A2998 RMK A01 T00561031  RH  054%=      5-min Rain = 0
KST3 210302Z 15007KT 06/M03 A2998 RMK A01 T00551031  RH  054%=      5-min Rain = 0
KST3 210303Z 16007KT 06/M03 A2998 RMK A01 T00551030  RH  054%=      5-min Rain = 0
KST3 210304Z 15007KT 06/M03 A2997 RMK A01 T00551031  RH  054%=      5-min Rain = 0
KST3 210305Z 16007KT 06/M03 A2997 RMK A01 T00551031  RH  054%=      5-min Rain = 0
KST3 210306Z 16007KT 05/M03 A2997 RMK A01 T00541031  RH  054%=      5-min Rain = 0
KST3 210307Z 16007KT 05/M03 A2997 RMK A01 T00531031  RH  055%=      5-min Rain = 0
KST3 210308Z 15007KT 05/M03 A2997 RMK A01 T00531030  RH  055%=      5-min Rain = 0
KST3 210309Z 16006KT 05/M03 A2997 RMK A01 T00531031  RH  055%=      5-min Rain = 0
KST3 210310Z 15006KT 05/M03 A2997 RMK A01 T00531031  RH  055%=      5-min Rain = 0
KST3 210311Z 15006KT 05/M03 A2997 RMK A01 T00531031  RH  055%=      5-min Rain = 0
KST3 210312Z 15007KT 05/M03 A2997 RMK A01 T00531031  RH  055%=      5-min Rain = 0
KST3 210313Z 15006KT 05/M03 A2997 RMK A01 T00541030  RH  054%=      5-min Rain = 0
KST3 210314Z 16006KT 06/M03 A2997 RMK A01 T00551030  RH  054%=      5-min Rain = 0
KST3 210315Z 16007KT 06/M03 A2997 RMK A01 T00551031  RH  054%=      5-min Rain = 0
KST3 210316Z 15007KT 06/M03 A2997 RMK A01 T00551031  RH  054%=      5-min Rain = 0
KST3 210317Z 16006KT 06/M03 A2997 RMK A01 T00551030  RH  054%=      5-min Rain = 0
KST3 210318Z 15007KT 06/M03 A2997 RMK A01 T00561030  RH  054%=      5-min Rain = 0
KST3 210319Z 15007KT 06/M03 A2997 RMK A01 T00561030  RH  054%=      5-min Rain = 0
KST3 210320Z 16007KT 06/M03 A2997 RMK A01 T00561030  RH  054%=      5-min Rain = 0
KST3 210321Z 16007KT 06/M03 A2997 RMK A01 T00561030  RH  054%=      5-min Rain = 0
KST3 210322Z 16009KT 06/M03 A2997 RMK A01 T00561030  RH  054%=      5-min Rain = 0
KST3 210323Z 16009KT 06/M03 A2997 RMK A01 T00561030  RH  054%=      5-min Rain = 0
KST3 210324Z 16009KT 06/M03 A2996 RMK A01 T00571029  RH  054%=      5-min Rain = 0
KST3 210325Z 16008KT 06/M03 A2996 RMK A01 T00571029  RH  054%=      5-min Rain = 0
KST3 210326Z 16009KT 06/M03 A2996 RMK A01 T00571029  RH  054%=      5-min Rain = 0
KST3 210327Z 16008KT 06/M03 A2996 RMK A01 T00581029  RH  054%=      5-min Rain = 0
KST3 210328Z 16009KT 06/M03 A2996 RMK A01 T00581029  RH  054%=      5-min Rain = 0
KST3 210329Z 16007KT 06/M03 A2996 RMK A01 T00581029  RH  054%=      5-min Rain = 0
KST3 210330Z 15009KT 06/M03 A2996 RMK A01 T00581029  RH  053%=      5-min Rain = 0
KST3 210331Z 16008KT 06/M03 A2996 RMK A01 T00591029  RH  053%=      5-min Rain = 0
KST3 210332Z 16008KT 06/M03 A2996 RMK A01 T00581029  RH  053%=      5-min Rain = 0
KST3 210333Z 16008KT 06/M03 A2996 RMK A01 T00591029  RH  053%=      5-min Rain = 0
KST3 210334Z 16008KT 06/M03 A2996 RMK A01 T00581029  RH  054%=      5-min Rain = 0
KST3 210335Z 16008KT 06/M03 A2996 RMK A01 T00581030  RH  053%=      5-min Rain = 0
KST3 210336Z 16008KT 06/M03 A2996 RMK A01 T00571030  RH  054%=      5-min Rain = 0
KST3 210337Z 16009KT 06/M03 A2996 RMK A01 T00571029  RH  054%=      5-min Rain = 0
KST3 210338Z 17009KT 06/M03 A2996 RMK A01 T00561029  RH  054%=      5-min Rain = 0
KST3 210339Z 17008KT 06/M03 A2996 RMK A01 T00561029  RH  054%=      5-min Rain = 0
KST3 210340Z 17009KT 06/M03 A2996 RMK A01 T00571029  RH  054%=      5-min Rain = 0
KST3 210341Z 17009KT 06/M03 A2996 RMK A01 T00581029  RH  054%=      5-min Rain = 0
KST3 210342Z 17009KT 06/M03 A2996 RMK A01 T00581029  RH  054%=      5-min Rain = 0
KST3 210343Z 17009KT 06/M03 A2996 RMK A01 T00581029  RH  054%=      5-min Rain = 0
KST3 210344Z 17009KT 06/M03 A2996 RMK A01 T00581029  RH  054%=      5-min Rain = 0
KST3 210345Z 16009KT 06/M03 A2996 RMK A01 T00581029  RH  054%=      5-min Rain = 0
KST3 210346Z 16009KT 06/M03 A2996 RMK A01 T00571029  RH  054%=      5-min Rain = 0
KST3 210347Z 16009KT 06/M03 A2996 RMK A01 T00571029  RH  054%=      5-min Rain = 0
KST3 210348Z 16008KT 06/M03 A2996 RMK A01 T00581029  RH  053%=      5-min Rain = 0
KST3 210349Z 16009KT 06/M03 A2996 RMK A01 T00581029  RH  053%=      5-min Rain = 0
KST3 210350Z 16009KT 06/M03 A2996 RMK A01 T00581029  RH  053%=      5-min Rain = 0
KST3 210351Z 16007KT 06/M03 A2996 RMK A01 T00591029  RH  053%=      5-min Rain = 0
KST3 210352Z 17007KT 06/M03 A2996 RMK A01 T00581030  RH  053%=      5-min Rain = 0
KST3 210353Z 17008KT 06/M03 A2996 RMK A01 T00581030  RH  053%=      5-min Rain = 0
KST3 210354Z 17007KT 06/M03 A2996 RMK A01 T00581030  RH  053%=      5-min Rain = 0
KST3 210355Z 17007KT 06/M03 A2996 RMK A01 T00571030  RH  054%=      5-min Rain = 0
KST3 210356Z 17006KT 06/M03 A2996 RMK A01 T00571029  RH  054%=      5-min Rain = 0
KST3 210357Z 17007KT 06/M03 A2996 RMK A01 T00571030  RH  054%=      5-min Rain = 0
KST3 210358Z 17007KT 06/M03 A2996 RMK A01 T00571029  RH  054%=      5-min Rain = 0
KST3 210359Z 17007KT 06/M03 A2996 RMK A01 T00561030  RH  054%=      5-min Rain = 0
KST3 210400Z 17007KT 06/M03 A2996 RMK A01 T00561029  RH  054%=      5-min Rain = 0
KST3 210401Z 16007KT 06/M03 A2996 RMK A01 T00561029  RH  054%=      5-min Rain = 0
KST3 210402Z 17007KT 06/M03 A2996 RMK A01 T00551030  RH  054%=      5-min Rain = 0
KST3 210403Z 16006KT 06/M03 A2996 RMK A01 T00551030  RH  054%=      5-min Rain = 0
KST3 210404Z 17007KT 06/M03 A2996 RMK A01 T00551030  RH  054%=      5-min Rain = 0
KST3 210405Z 17006KT 05/M03 A2996 RMK A01 T00541030  RH  055%=      5-min Rain = 0
KST3 210406Z 17007KT 06/M03 A2996 RMK A01 T00551029  RH  055%=      5-min Rain = 0
KST3 210407Z 17007KT 06/M03 A2996 RMK A01 T00551029  RH  055%=      5-min Rain = 0
KST3 210408Z 17007KT 06/M03 A2996 RMK A01 T00551029  RH  055%=      5-min Rain = 0
KST3 210409Z 17007KT 06/M03 A2996 RMK A01 T00551029  RH  055%=      5-min Rain = 0
KST3 210410Z 17008KT 06/M03 A2996 RMK A01 T00551029  RH  055%=      5-min Rain = 0
KST3 210411Z 17007KT 06/M03 A2996 RMK A01 T00551029  RH  055%=      5-min Rain = 0
KST3 210412Z 17007KT 06/M03 A2996 RMK A01 T00561029  RH  054%=      5-min Rain = 0
KST3 210413Z 17008KT 06/M03 A2996 RMK A01 T00561029  RH  054%=      5-min Rain = 0
KST3 210414Z 17007KT 05/M03 A2996 RMK A01 T00541030  RH  055%=      5-min Rain = 0
KST3 210415Z 16008KT 05/M03 A2996 RMK A01 T00541029  RH  055%=      5-min Rain = 0
KST3 210416Z 17007KT 05/M03 A2996 RMK A01 T00541029  RH  055%=      5-min Rain = 0
KST3 210417Z 17007KT 05/M03 A2996 RMK A01 T00541029  RH  055%=      5-min Rain = 0
KST3 210418Z 17006KT 05/M03 A2996 RMK A01 T00541029  RH  055%=      5-min Rain = 0
KST3 210419Z 17007KT 05/M03 A2996 RMK A01 T00541029  RH  055%=      5-min Rain = 0
KST3 210420Z 17007KT 05/M03 A2996 RMK A01 T00541029  RH  055%=      5-min Rain = 0
KST3 210421Z 17007KT 05/M03 A2996 RMK A01 T00541029  RH  055%=      5-min Rain = 0
KST3 210422Z 17007KT 05/M03 A2996 RMK A01 T00541029  RH  055%=      5-min Rain = 0
KST3 210423Z 17007KT 05/M03 A2996 RMK A01 T00541029  RH  055%=      5-min Rain = 0
KST3 210424Z 16007KT 05/M03 A2996 RMK A01 T00531029  RH  055%=      5-min Rain = 0
KST3 210425Z 17006KT 05/M03 A2996 RMK A01 T00531029  RH  055%=      5-min Rain = 0
KST3 210426Z 17006KT 05/M03 A2996 RMK A01 T00531030  RH  055%=      5-min Rain = 0
KST3 210427Z 17007KT 05/M03 A2996 RMK A01 T00531029  RH  055%=      5-min Rain = 0
KST3 210428Z 17007KT 05/M03 A2996 RMK A01 T00521030  RH  056%=      5-min Rain = 0
KST3 210429Z 16007KT 05/M03 A2996 RMK A01 T00521029  RH  056%=      5-min Rain = 0
KST3 210430Z 16007KT 05/M03 A2996 RMK A01 T00511029  RH  056%=      5-min Rain = 0
KST3 210431Z 16007KT 05/M03 A2996 RMK A01 T00501030  RH  056%=      5-min Rain = 0
KST3 210432Z 18005KT 05/M03 A2996 RMK A01 T00491030  RH  056%=      5-min Rain = 0
KST3 210433Z 18005KT 05/M03 A2996 RMK A01 T00491030  RH  057%=      5-min Rain = 0
KST3 210434Z 18005KT 05/M03 A2996 RMK A01 T00491030  RH  057%=      5-min Rain = 0
KST3 210435Z 18006KT 05/M03 A2995 RMK A01 T00481030  RH  057%=      5-min Rain = 0
KST3 210436Z 17006KT 05/M03 A2995 RMK A01 T00491030  RH  057%=      5-min Rain = 0
KST3 210437Z 18005KT 05/M03 A2995 RMK A01 T00481030  RH  057%=      5-min Rain = 0
KST3 210438Z 17005KT 05/M03 A2995 RMK A01 T00481030  RH  057%=      5-min Rain = 0
KST3 210439Z 16006KT 05/M03 A2995 RMK A01 T00471030  RH  057%=      5-min Rain = 0
KST3 210440Z 15007KT 05/M03 A2995 RMK A01 T00461030  RH  058%=      5-min Rain = 0
KST3 210441Z 15006KT 05/M03 A2995 RMK A01 T00461030  RH  058%=      5-min Rain = 0
KST3 210442Z 15007KT 05/M03 A2995 RMK A01 T00471029  RH  058%=      5-min Rain = 0
KST3 210443Z 15007KT 05/M03 A2995 RMK A01 T00481029  RH  057%=      5-min Rain = 0
KST3 210444Z 15006KT 05/M03 A2995 RMK A01 T00481030  RH  057%=      5-min Rain = 0
KST3 210445Z 15006KT 05/M03 A2995 RMK A01 T00481030  RH  057%=      5-min Rain = 0
KST3 210446Z 15006KT 05/M03 A2995 RMK A01 T00461031  RH  057%=      5-min Rain = 0
KST3 210447Z 15007KT 05/M03 A2995 RMK A01 T00461030  RH  058%=      5-min Rain = 0
KST3 210448Z 15006KT 05/M03 A2995 RMK A01 T00461030  RH  058%=      5-min Rain = 0
KST3 210449Z 15006KT 05/M03 A2995 RMK A01 T00451030  RH  058%=      5-min Rain = 0
KST3 210450Z 15006KT 05/M03 A2995 RMK A01 T00451030  RH  058%=      5-min Rain = 0
KST3 210451Z 15006KT 05/M03 A2995 RMK A01 T00451030  RH  058%=      5-min Rain = 0
KST3 210452Z 15006KT 04/M03 A2995 RMK A01 T00441030  RH  058%=      5-min Rain = 0
KST3 210453Z 15006KT 04/M03 A2995 RMK A01 T00441030  RH  059%=      5-min Rain = 0
KST3 210454Z 16006KT 04/M03 A2995 RMK A01 T00441030  RH  059%=      5-min Rain = 0
KST3 210455Z 16006KT 04/M03 A2995 RMK A01 T00431030  RH  059%=      5-min Rain = 0
KST3 210456Z 16006KT 04/M03 A2995 RMK A01 T00431031  RH  059%=      5-min Rain = 0
KST3 210457Z 16007KT 04/M03 A2995 RMK A01 T00431030  RH  059%=      5-min Rain = 0
KST3 210458Z 16007KT 04/M03 A2995 RMK A01 T00431030  RH  059%=      5-min Rain = 0
KST3 210459Z 16007KT 04/M03 A2994 RMK A01 T00421030  RH  059%=      5-min Rain = 0
KST3 210500Z 16008KT 04/M03 A2994 RMK A01 T00441029  RH  059%=      5-min Rain = 0
KST3 210501Z 16007KT 04/M03 A2994 RMK A01 T00441029  RH  059%=      5-min Rain = 0
KST3 210502Z 16008KT 04/M03 A2994 RMK A01 T00441029  RH  059%=      5-min Rain = 0
KST3 210503Z 16008KT 04/M03 A2994 RMK A01 T00431030  RH  059%=      5-min Rain = 0
KST3 210504Z 16008KT 04/M03 A2994 RMK A01 T00431029  RH  059%=      5-min Rain = 0
KST3 210505Z 16008KT 04/M03 A2994 RMK A01 T00431029  RH  059%=      5-min Rain = 0
KST3 210506Z 16008KT 04/M03 A2994 RMK A01 T00441028  RH  059%=      5-min Rain = 0
KST3 210507Z 16008KT 05/M03 A2994 RMK A01 T00451028  RH  059%=      5-min Rain = 0
KST3 210508Z 16008KT 05/M03 A2994 RMK A01 T00451028  RH  059%=      5-min Rain = 0
KST3 210509Z 16008KT 05/M03 A2994 RMK A01 T00451028  RH  059%=      5-min Rain = 0
KST3 210510Z 16008KT 05/M03 A2994 RMK A01 T00461028  RH  059%=      5-min Rain = 0
KST3 210511Z 16008KT 05/M03 A2994 RMK A01 T00451029  RH  059%=      5-min Rain = 0
KST3 210512Z 16008KT 04/M03 A2994 RMK A01 T00441029  RH  059%=      5-min Rain = 0
KST3 210513Z 16008KT 04/M03 A2994 RMK A01 T00441029  RH  059%=      5-min Rain = 0
KST3 210514Z 16009KT 04/M03 A2994 RMK A01 T00441028  RH  059%=      5-min Rain = 0
KST3 210515Z 16009KT 04/M03 A2994 RMK A01 T00441028  RH  059%=      5-min Rain = 0
KST3 210516Z 17010KT 05/M03 A2994 RMK A01 T00461028  RH  059%=      5-min Rain = 0
KST3 210517Z 17008KT 05/M03 A2994 RMK A01 T00471028  RH  058%=      5-min Rain = 0
KST3 210518Z 17009KT 05/M03 A2994 RMK A01 T00471028  RH  058%=      5-min Rain = 0
KST3 210519Z 17009KT 05/M03 A2994 RMK A01 T00461029  RH  058%=      5-min Rain = 0
KST3 210520Z 17009KT 05/M03 A2994 RMK A01 T00461029  RH  058%=      5-min Rain = 0
KST3 210521Z 17010KT 05/M03 A2994 RMK A01 T00461028  RH  058%=      5-min Rain = 0
KST3 210522Z 17009KT 05/M03 A2994 RMK A01 T00471028  RH  058%=      5-min Rain = 0
KST3 210523Z 17010KT 05/M03 A2994 RMK A01 T00471028  RH  058%=      5-min Rain = 0
KST3 210524Z 17010KT 05/M03 A2994 RMK A01 T00471028  RH  058%=      5-min Rain = 0
KST3 210525Z 17010KT 05/M03 A2993 RMK A01 T00471028  RH  058%=      5-min Rain = 0
KST3 210526Z 17010KT 05/M03 A2994 RMK A01 T00471028  RH  058%=      5-min Rain = 0
KST3 210527Z 17009KT 05/M03 A2994 RMK A01 T00471028  RH  058%=      5-min Rain = 0
KST3 210528Z 17009KT 05/M03 A2993 RMK A01 T00471028  RH  058%=      5-min Rain = 0
KST3 210529Z 17010KT 05/M03 A2993 RMK A01 T00461028  RH  058%=      5-min Rain = 0
KST3 210530Z 17009KT 05/M03 A2993 RMK A01 T00461028  RH  059%=      5-min Rain = 0
KST3 210531Z 17008KT 05/M03 A2993 RMK A01 T00461028  RH  059%=      5-min Rain = 0
KST3 210532Z 17008KT 05/M03 A2993 RMK A01 T00451029  RH  059%=      5-min Rain = 0
KST3 210533Z 17009KT 04/M03 A2993 RMK A01 T00441028  RH  059%=      5-min Rain = 0
KST3 210534Z 17009KT 04/M03 A2993 RMK A01 T00431028  RH  060%=      5-min Rain = 0
KST3 210535Z 17008KT 04/M03 A2993 RMK A01 T00431028  RH  060%=      5-min Rain = 0
KST3 210536Z 17008KT 04/M03 A2993 RMK A01 T00431028  RH  060%=      5-min Rain = 0
KST3 210537Z 17008KT 04/M03 A2993 RMK A01 T00421028  RH  060%=      5-min Rain = 0
KST3 210538Z 16009KT 04/M03 A2993 RMK A01 T00421028  RH  060%=      5-min Rain = 0
KST3 210539Z 17008KT 04/M03 A2993 RMK A01 T00421028  RH  060%=      5-min Rain = 0
KST3 210540Z 17009KT 04/M03 A2993 RMK A01 T00421028  RH  061%=      5-min Rain = 0
KST3 210541Z 17009KT 04/M03 A2993 RMK A01 T00411028  RH  061%=      5-min Rain = 0
KST3 210542Z 17009KT 04/M03 A2993 RMK A01 T00401028  RH  061%=      5-min Rain = 0
KST3 210543Z 17009KT 04/M03 A2993 RMK A01 T00401029  RH  061%=      5-min Rain = 0
KST3 210544Z 17010KT 04/M03 A2992 RMK A01 T00401028  RH  061%=      5-min Rain = 0
KST3 210545Z 17011KT 04/M03 A2992 RMK A01 T00401028  RH  061%=      5-min Rain = 0
KST3 210546Z 17010KT 04/M03 A2992 RMK A01 T00411028  RH  061%=      5-min Rain = 0
KST3 210547Z 17011KT 04/M03 A2992 RMK A01 T00421028  RH  060%=      5-min Rain = 0
KST3 210548Z 17011KT 04/M03 A2992 RMK A01 T00421029  RH  060%=      5-min Rain = 0
KST3 210549Z 17011KT 04/M03 A2992 RMK A01 T00421028  RH  060%=      5-min Rain = 0
KST3 210550Z 17011KT 04/M03 A2992 RMK A01 T00421028  RH  060%=      5-min Rain = 0
KST3 210551Z 17010KT 04/M03 A2992 RMK A01 T00411029  RH  061%=      5-min Rain = 0
KST3 210552Z 17012KT 04/M03 A2992 RMK A01 T00411028  RH  061%=      5-min Rain = 0
KST3 210553Z 17011KT 04/M03 A2992 RMK A01 T00401028  RH  061%=      5-min Rain = 0
KST3 210554Z 17012KT 04/M03 A2992 RMK A01 T00401029  RH  061%=      5-min Rain = 0
KST3 210555Z 17011KT 04/M03 A2992 RMK A01 T00401029  RH  061%=      5-min Rain = 0
KST3 210556Z 18011KT 04/M03 A2992 RMK A01 T00401029  RH  061%=      5-min Rain = 0
KST3 210557Z 17011KT 04/M03 A2992 RMK A01 T00401028  RH  061%=      5-min Rain = 0
KST3 210558Z 17011KT 04/M03 A2992 RMK A01 T00401029  RH  061%=      5-min Rain = 0
KST3 210559Z 18010KT 04/M03 A2992 RMK A01 T00401029  RH  061%=      5-min Rain = 0

Page generated in 0.0772 seconds.